GFSGBSN_prec_precacc_087.txt.gz
Total_Precipitation_Accumulation
0.07 0.05 0.06 0.05 0.04 0.03 0.03 0.03 0.03 0.03 0.01 0.01 0.02 0.01 0.02 0.02 0.02 0.02 0.02 0.01 0.00 0.01 0.01 0.00 0.01 0.02 0.01 0.00 0.00 0.00 0.00 0.00 0.00 0.00 0.00 0.00 0.00 0.00 0.00 0.00 0.00 0.00 0.00 0.00 0.00 0.00 0.00
0.07 0.06 0.05 0.05 0.04 0.03 0.03 0.03 0.03 0.02 0.01 0.01 0.00 0.01 0.00 0.01 0.02 0.02 0.01 0.00 0.01 0.01 0.01 0.01 0.01 0.02 0.00 0.00 0.00 0.00 0.00 0.00 0.00 0.00 0.00 0.00 0.00 0.00 0.00 0.00 0.00 0.00 0.00 0.00 0.00 0.00 0.00
0.08 0.07 0.06 0.05 0.04 0.03 0.03 0.02 0.02 0.02 0.03 0.02 0.01 0.01 0.00 0.00 0.01 0.01 0.01 0.01 0.00 0.01 0.01 0.01 0.02 0.02 0.01 0.00 0.00 0.00 0.00 0.00 0.00 0.00 0.00 0.00 0.00 0.00 0.00 0.00 0.00 0.00 0.00 0.00 0.00 0.00 0.00
0.09 0.08 0.07 0.09 0.06 0.05 0.04 0.02 0.03 0.02 0.02 0.02 0.02 0.01 0.01 0.00 0.00 0.00 0.01 0.00 0.00 0.01 0.01 0.01 0.02 0.01 0.00 0.00 0.00 0.00 0.00 0.00 0.00 0.00 0.00 0.00 0.00 0.00 0.00 0.00 0.00 0.00 0.00 0.00 0.00 0.00 0.00
0.11 0.10 0.08 0.07 0.08 0.07 0.05 0.04 0.03 0.01 0.01 0.01 0.01 0.01 0.01 0.01 0.00 0.01 0.02 0.00 0.00 0.01 0.01 0.01 0.00 0.00 0.00 0.00 0.00 0.00 0.00 0.00 0.00 0.00 0.00 0.00 0.00 0.00 0.00 0.00 0.00 0.00 0.00 0.00 0.00 0.00 0.00
0.12 0.10 0.08 0.07 0.07 0.07 0.07 0.05 0.04 0.03 0.02 0.02 0.01 0.01 0.01 0.01 0.00 0.01 0.01 0.00 0.00 0.00 0.00 0.00 0.01 0.00 0.00 0.00 0.00 0.00 0.00 0.01 0.02 0.00 0.00 0.00 0.00 0.00 0.00 0.00 0.00 0.00 0.00 0.00 0.00 0.00 0.00
0.12 0.09 0.07 0.07 0.07 0.07 0.06 0.06 0.06 0.05 0.03 0.03 0.02 0.02 0.01 0.01 0.01 0.02 0.00 0.00 0.00 0.00 0.00 0.00 0.00 0.00 0.00 0.00 0.00 0.00 0.00 0.00 0.01 0.00 0.01 0.03 0.00 0.00 0.01 0.00 0.00 0.00 0.00 0.00 0.00 0.00 0.00
0.13 0.12 0.10 0.09 0.09 0.08 0.08 0.08 0.07 0.06 0.04 0.03 0.03 0.02 0.01 0.02 0.03 0.04 0.01 0.00 0.00 0.00 0.00 0.00 0.00 0.00 0.00 0.00 0.00 0.00 0.00 0.00 0.00 0.01 0.03 0.01 0.00 0.00 0.00 0.00 0.00 0.00 0.00 0.00 0.00 0.00 0.00
0.14 0.10 0.08 0.08 0.10 0.09 0.09 0.09 0.08 0.07 0.06 0.05 0.04 0.02 0.03 0.04 0.05 0.02 0.01 0.00 0.00 0.00 0.00 0.00 0.00 0.00 0.00 0.00 0.00 0.00 0.00 0.00 0.00 0.00 0.01 0.03 0.00 0.00 0.00 0.00 0.00 0.00 0.00 0.00 0.00 0.00 0.00
0.16 0.15 0.13 0.11 0.12 0.11 0.10 0.10 0.08 0.07 0.06 0.05 0.05 0.04 0.04 0.07 0.02 0.00 0.00 0.00 0.00 0.00 0.00 0.00 0.00 0.00 0.00 0.00 0.00 0.00 0.00 0.00 0.00 0.00 0.00 0.02 0.00 0.00 0.00 0.00 0.00 0.00 0.00 0.00 0.00 0.00 0.00
0.19 0.17 0.15 0.14 0.13 0.13 0.11 0.09 0.08 0.08 0.09 0.10 0.08 0.06 0.09 0.11 0.02 0.00 0.00 0.00 0.00 0.03 0.02 0.00 0.00 0.00 0.00 0.00 0.00 0.00 0.00 0.00 0.00 0.00 0.00 0.03 0.00 0.00 0.00 0.00 0.00 0.01 0.00 0.00 0.00 0.00 0.02
0.25 0.18 0.16 0.16 0.14 0.11 0.10 0.09 0.08 0.09 0.09 0.10 0.12 0.11 0.20 0.18 0.05 0.00 0.01 0.03 0.11 0.11 0.02 0.00 0.00 0.00 0.00 0.00 0.00 0.00 0.00 0.00 0.00 0.00 0.00 0.00 0.01 0.01 0.00 0.00 0.00 0.00 0.00 0.00 0.00 0.00 0.00
0.40 0.30 0.23 0.18 0.16 0.13 0.12 0.13 0.10 0.09 0.10 0.13 0.14 0.16 0.25 0.13 0.06 0.04 0.08 0.20 0.26 0.09 0.00 0.00 0.00 0.00 0.00 0.00 0.00 0.00 0.00 0.00 0.00 0.00 0.00 0.00 0.00 0.01 0.01 0.00 0.00 0.00 0.00 0.01 0.15 0.09 0.02
0.56 0.40 0.32 0.24 0.20 0.17 0.14 0.14 0.15 0.13 0.12 0.17 0.18 0.23 0.24 0.14 0.05 0.09 0.23 0.40 0.20 0.01 0.00 0.00 0.00 0.00 0.00 0.00 0.00 0.00 0.00 0.00 0.00 0.00 0.00 0.00 0.00 0.00 0.01 0.00 0.01 0.00 0.00 0.03 0.14 0.09 0.07
0.67 0.56 0.41 0.32 0.25 0.22 0.20 0.16 0.17 0.18 0.20 0.22 0.42 0.36 0.32 0.11 0.08 0.25 0.56 0.43 0.04 0.00 0.00 0.00 0.00 0.00 0.00 0.00 0.00 0.00 0.00 0.00 0.00 0.00 0.01 0.01 0.02 0.02 0.01 0.00 0.00 0.01 0.00 0.01 0.03 0.04 0.06
0.77 0.71 0.58 0.45 0.34 0.27 0.27 0.28 0.24 0.25 0.31 0.44 0.56 0.57 0.26 0.10 0.33 0.69 0.91 0.32 0.01 0.00 0.00 0.00 0.00 0.00 0.00 0.00 0.00 0.00 0.00 0.00 0.00 0.00 0.00 0.02 0.06 0.01 0.00 0.00 0.00 0.00 0.00 0.00 0.01 0.05 0.04
0.90 0.79 0.70 0.58 0.50 0.38 0.37 0.37 0.40 0.34 0.34 0.66 1.25 1.17 0.28 0.16 0.95 1.55 1.00 0.19 0.01 0.00 0.00 0.00 0.00 0.00 0.00 0.01 0.01 0.00 0.00 0.00 0.00 0.00 0.00 0.00 0.06 0.07 0.02 0.00 0.00 0.00 0.00 0.00 0.00 0.00 0.01
1.09 1.02 0.77 0.70 0.61 0.49 0.50 0.49 0.51 0.55 0.62 1.39 1.95 1.42 0.38 0.39 1.29 1.10 0.36 0.10 0.03 0.01 0.00 0.00 0.00 0.00 0.00 0.00 0.01 0.01 0.00 0.00 0.00 0.00 0.00 0.00 0.00 0.02 0.01 0.01 0.00 0.00 0.00 0.01 0.01 0.00 0.01
1.01 1.08 0.88 0.75 0.74 0.61 0.61 0.72 0.70 0.71 1.04 1.74 2.28 1.36 1.13 0.60 0.71 0.25 0.15 0.14 0.06 0.02 0.00 0.00 0.00 0.00 0.00 0.00 0.00 0.01 0.00 0.00 0.01 0.00 0.01 0.01 0.03 0.01 0.01 0.01 0.01 0.00 0.00 0.00 0.00 0.00 0.00
0.99 1.04 0.89 0.86 0.86 0.85 0.76 0.86 1.05 1.00 1.18 1.90 2.72 1.89 2.08 1.43 0.31 0.09 0.11 0.16 0.16 0.04 0.01 0.00 0.01 0.01 0.00 0.00 0.00 0.01 0.01 0.01 0.02 0.01 0.02 0.03 0.03 0.04 0.03 0.01 0.00 0.00 0.00 0.00 0.00 0.00 0.00
1.02 0.93 0.88 0.87 0.92 1.04 1.04 0.99 1.19 1.33 1.53 3.29 3.81 1.32 0.62 0.92 0.39 0.08 0.09 0.11 0.10 0.11 0.03 0.01 0.02 0.01 0.01 0.01 0.01 0.02 0.06 0.03 0.02 0.03 0.07 0.10 0.05 0.00 0.01 0.00 0.00 0.00 0.00 0.00 0.00 0.00 0.00
0.99 0.88 0.79 0.83 0.90 1.06 1.20 1.20 1.27 1.64 2.23 4.64 4.04 0.78 0.21 0.09 0.09 0.19 0.15 0.09 0.06 0.06 0.07 0.03 0.01 0.01 0.01 0.02 0.02 0.05 0.04 0.09 0.05 0.06 0.08 0.20 0.19 0.04 0.01 0.00 0.00 0.00 0.00 0.00 0.00 0.00 0.00
0.78 0.78 0.66 0.70 0.72 0.79 0.92 1.12 1.29 1.92 3.75 5.98 3.12 0.43 0.31 0.25 0.18 0.29 0.19 0.05 0.03 0.04 0.04 0.01 0.00 0.03 0.03 0.04 0.07 0.07 0.05 0.06 0.09 0.09 0.16 0.22 0.36 0.32 0.15 0.07 0.05 0.07 0.00 0.00 0.00 0.00 0.00
0.57 0.64 0.64 0.57 0.68 0.63 0.64 0.68 0.94 1.65 3.83 4.35 2.13 0.39 0.71 0.56 0.21 0.12 0.04 0.05 0.05 0.04 0.03 0.02 0.00 0.03 0.04 0.03 0.07 0.08 0.06 0.05 0.05 0.05 0.07 0.20 0.30 0.32 0.20 0.20 0.32 0.09 0.01 0.01 0.00 0.00 0.00
0.53 0.58 0.67 0.59 0.63 0.66 0.62 0.59 0.77 0.96 2.25 3.45 2.27 0.66 0.64 0.54 0.15 0.10 0.07 0.06 0.07 0.08 0.08 0.06 0.02 0.02 0.08 0.13 0.16 0.16 0.10 0.09 0.03 0.04 0.06 0.06 0.16 0.42 0.39 0.36 0.21 0.12 0.11 0.08 0.08 0.02 0.00
0.53 0.60 0.71 0.66 0.60 0.63 0.61 0.59 0.62 0.62 1.17 2.47 3.00 1.58 1.23 0.65 0.22 0.08 0.09 0.07 0.09 0.20 0.19 0.11 0.10 0.08 0.08 0.22 0.34 0.24 0.10 0.07 0.05 0.07 0.04 0.05 0.09 0.30 0.27 0.24 0.11 0.08 0.03 0.05 0.02 0.12 0.05
0.45 0.57 0.66 0.70 0.62 0.60 0.63 0.54 0.42 0.48 0.85 1.57 2.13 1.78 2.43 1.40 0.26 0.15 0.15 0.09 0.07 0.31 0.43 0.22 0.28 0.31 0.27 0.41 0.34 0.17 0.07 0.03 0.04 0.14 0.17 0.08 0.12 0.23 0.16 0.22 0.06 0.02 0.01 0.04 0.34 0.35 0.20
0.50 0.64 0.62 0.63 0.56 0.59 0.66 0.52 0.38 0.48 0.91 1.33 1.39 1.14 2.64 1.47 0.40 0.28 0.19 0.06 0.05 0.29 0.53 0.27 0.49 0.52 0.61 0.49 0.26 0.13 0.03 0.01 0.01 0.02 0.18 0.20 0.16 0.14 0.21 0.22 0.08 0.03 0.09 0.19 0.33 0.29 0.45
0.48 0.64 0.62 0.63 0.48 0.46 0.61 0.59 0.54 0.61 1.12 1.26 1.13 1.06 1.87 1.67 0.81 0.42 0.31 0.11 0.02 0.07 0.33 0.18 0.19 0.16 0.16 0.21 0.16 0.13 0.07 0.03 0.00 0.00 0.01 0.08 0.14 0.25 0.17 0.11 0.08 0.02 0.05 0.08 0.07 0.08 0.07

GFSGBSN_prec_precacc_093.txt.gz
Total_Precipitation_Accumulation
0.07 0.06 0.06 0.05 0.05 0.03 0.03 0.03 0.03 0.03 0.02 0.01 0.02 0.01 0.02 0.02 0.02 0.02 0.02 0.01 0.00 0.01 0.01 0.00 0.01 0.02 0.01 0.00 0.00 0.00 0.00 0.00 0.00 0.00 0.00 0.00 0.00 0.00 0.00 0.00 0.00 0.00 0.00 0.00 0.00 0.00 0.00
0.08 0.07 0.06 0.06 0.04 0.03 0.03 0.03 0.03 0.02 0.01 0.01 0.01 0.01 0.00 0.01 0.02 0.02 0.01 0.00 0.01 0.01 0.01 0.01 0.01 0.02 0.00 0.00 0.00 0.00 0.00 0.00 0.00 0.00 0.00 0.00 0.00 0.00 0.00 0.00 0.00 0.00 0.00 0.00 0.00 0.00 0.00
0.09 0.08 0.07 0.06 0.05 0.04 0.04 0.03 0.02 0.02 0.03 0.02 0.01 0.01 0.00 0.00 0.01 0.01 0.01 0.01 0.00 0.01 0.01 0.01 0.02 0.03 0.01 0.00 0.00 0.00 0.00 0.00 0.00 0.00 0.00 0.00 0.00 0.00 0.00 0.00 0.00 0.00 0.00 0.00 0.00 0.00 0.00
0.09 0.08 0.08 0.09 0.08 0.06 0.05 0.03 0.03 0.02 0.02 0.02 0.02 0.01 0.01 0.00 0.00 0.00 0.01 0.00 0.00 0.01 0.01 0.01 0.02 0.01 0.00 0.00 0.00 0.00 0.00 0.00 0.00 0.00 0.00 0.00 0.00 0.00 0.00 0.00 0.00 0.00 0.00 0.00 0.00 0.00 0.00
0.12 0.10 0.09 0.08 0.09 0.08 0.07 0.05 0.03 0.02 0.02 0.02 0.02 0.01 0.01 0.01 0.00 0.01 0.02 0.00 0.00 0.01 0.01 0.01 0.00 0.00 0.00 0.00 0.00 0.00 0.00 0.00 0.00 0.00 0.00 0.00 0.00 0.00 0.00 0.00 0.00 0.00 0.00 0.00 0.00 0.00 0.00
0.13 0.11 0.08 0.07 0.08 0.08 0.08 0.07 0.05 0.03 0.03 0.02 0.01 0.02 0.01 0.01 0.00 0.01 0.01 0.00 0.00 0.00 0.00 0.00 0.01 0.00 0.00 0.00 0.00 0.00 0.00 0.01 0.02 0.00 0.00 0.00 0.00 0.00 0.00 0.00 0.00 0.00 0.00 0.00 0.00 0.00 0.00
0.13 0.10 0.08 0.08 0.08 0.08 0.08 0.07 0.08 0.06 0.04 0.03 0.02 0.02 0.01 0.01 0.01 0.02 0.00 0.00 0.00 0.00 0.00 0.00 0.00 0.00 0.00 0.00 0.00 0.00 0.00 0.00 0.01 0.00 0.01 0.03 0.00 0.00 0.01 0.00 0.00 0.00 0.00 0.00 0.00 0.00 0.00
0.13 0.13 0.12 0.12 0.12 0.12 0.11 0.10 0.09 0.07 0.05 0.04 0.03 0.02 0.01 0.02 0.03 0.04 0.01 0.00 0.00 0.00 0.00 0.00 0.00 0.00 0.00 0.00 0.00 0.00 0.00 0.00 0.00 0.01 0.03 0.01 0.00 0.00 0.00 0.00 0.00 0.00 0.00 0.00 0.00 0.00 0.00
0.17 0.16 0.15 0.14 0.14 0.12 0.11 0.12 0.12 0.11 0.08 0.07 0.05 0.02 0.03 0.04 0.05 0.02 0.01 0.00 0.00 0.00 0.00 0.00 0.00 0.00 0.00 0.00 0.00 0.00 0.00 0.00 0.00 0.00 0.01 0.03 0.00 0.00 0.00 0.00 0.00 0.00 0.00 0.00 0.00 0.00 0.00
0.22 0.19 0.16 0.15 0.14 0.13 0.13 0.12 0.11 0.10 0.09 0.07 0.06 0.04 0.04 0.07 0.02 0.00 0.00 0.00 0.00 0.00 0.00 0.00 0.00 0.00 0.00 0.00 0.00 0.00 0.00 0.00 0.00 0.00 0.00 0.02 0.00 0.00 0.00 0.00 0.00 0.00 0.00 0.00 0.00 0.00 0.00
0.21 0.19 0.17 0.16 0.15 0.14 0.12 0.10 0.09 0.10 0.11 0.12 0.09 0.06 0.09 0.11 0.02 0.01 0.00 0.00 0.00 0.03 0.02 0.00 0.00 0.00 0.00 0.00 0.00 0.00 0.00 0.00 0.00 0.00 0.00 0.03 0.00 0.00 0.00 0.00 0.00 0.01 0.00 0.00 0.00 0.00 0.02
0.30 0.22 0.19 0.19 0.18 0.16 0.14 0.13 0.11 0.10 0.11 0.12 0.13 0.11 0.20 0.18 0.05 0.00 0.01 0.04 0.14 0.12 0.02 0.00 0.00 0.00 0.00 0.00 0.00 0.00 0.00 0.00 0.00 0.00 0.00 0.00 0.01 0.01 0.00 0.00 0.00 0.00 0.00 0.00 0.00 0.00 0.04
0.44 0.33 0.27 0.24 0.21 0.17 0.16 0.16 0.13 0.12 0.13 0.15 0.16 0.16 0.25 0.13 0.07 0.08 0.16 0.31 0.32 0.10 0.00 0.00 0.00 0.00 0.00 0.00 0.00 0.00 0.00 0.00 0.00 0.00 0.00 0.00 0.00 0.01 0.01 0.00 0.00 0.00 0.00 0.02 0.17 0.09 0.03
0.61 0.45 0.36 0.26 0.21 0.18 0.16 0.15 0.17 0.17 0.16 0.20 0.20 0.24 0.24 0.14 0.05 0.10 0.34 0.61 0.28 0.01 0.00 0.00 0.00 0.00 0.00 0.00 0.00 0.00 0.00 0.00 0.00 0.00 0.00 0.00 0.00 0.00 0.01 0.00 0.01 0.00 0.00 0.03 0.15 0.12 0.11
0.69 0.59 0.45 0.37 0.29 0.25 0.22 0.19 0.20 0.21 0.24 0.25 0.43 0.36 0.32 0.11 0.08 0.30 0.72 0.53 0.06 0.00 0.00 0.00 0.00 0.00 0.00 0.00 0.00 0.00 0.00 0.00 0.00 0.00 0.01 0.01 0.02 0.02 0.01 0.00 0.00 0.01 0.00 0.01 0.03 0.05 0.09
0.78 0.74 0.60 0.47 0.36 0.28 0.28 0.30 0.26 0.27 0.33 0.46 0.57 0.58 0.26 0.10 0.36 0.82 1.04 0.39 0.01 0.00 0.00 0.00 0.00 0.00 0.01 0.00 0.00 0.00 0.00 0.00 0.00 0.00 0.00 0.02 0.06 0.01 0.00 0.00 0.00 0.00 0.00 0.00 0.01 0.06 0.05
0.90 0.80 0.70 0.59 0.51 0.41 0.41 0.40 0.43 0.38 0.39 0.69 1.25 1.19 0.28 0.16 1.08 1.72 1.08 0.24 0.02 0.00 0.01 0.02 0.01 0.03 0.03 0.04 0.02 0.01 0.01 0.08 0.03 0.01 0.01 0.03 0.07 0.07 0.02 0.00 0.00 0.00 0.00 0.00 0.01 0.00 0.01
1.09 1.03 0.77 0.71 0.63 0.51 0.53 0.54 0.56 0.61 0.68 1.40 1.99 1.45 0.40 0.44 1.40 1.17 0.38 0.10 0.05 0.01 0.01 0.05 0.02 0.01 0.08 0.07 0.05 0.05 0.11 0.07 0.07 0.01 0.00 0.02 0.04 0.04 0.01 0.01 0.00 0.00 0.00 0.01 0.01 0.00 0.01
1.02 1.09 0.90 0.77 0.77 0.66 0.66 0.75 0.73 0.76 1.08 1.79 2.34 1.37 1.17 0.81 0.80 0.26 0.16 0.15 0.09 0.06 0.03 0.03 0.03 0.01 0.02 0.04 0.02 0.06 0.06 0.02 0.01 0.00 0.01 0.01 0.04 0.02 0.01 0.02 0.02 0.01 0.00 0.00 0.00 0.00 0.00
1.01 1.05 0.90 0.87 0.88 0.87 0.77 0.88 1.10 1.07 1.25 1.98 2.83 1.93 2.09 1.55 0.46 0.14 0.17 0.20 0.17 0.07 0.06 0.04 0.02 0.02 0.03 0.02 0.01 0.02 0.05 0.04 0.02 0.01 0.02 0.03 0.03 0.04 0.04 0.07 0.02 0.00 0.00 0.00 0.01 0.01 0.00
1.04 0.94 0.90 0.89 0.94 1.05 1.05 1.00 1.22 1.40 1.64 3.41 3.90 1.36 0.64 0.96 0.41 0.09 0.12 0.18 0.19 0.17 0.07 0.05 0.09 0.04 0.02 0.04 0.02 0.02 0.06 0.04 0.02 0.03 0.07 0.10 0.05 0.00 0.01 0.00 0.00 0.00 0.00 0.00 0.00 0.01 0.01
1.02 0.92 0.84 0.88 0.94 1.10 1.23 1.22 1.28 1.70 2.37 4.79 4.07 0.79 0.21 0.10 0.13 0.30 0.19 0.11 0.06 0.09 0.17 0.10 0.08 0.05 0.02 0.05 0.05 0.07 0.06 0.12 0.08 0.07 0.08 0.21 0.20 0.05 0.01 0.00 0.00 0.00 0.00 0.00 0.00 0.00 0.00
0.83 0.85 0.73 0.78 0.82 0.90 1.01 1.21 1.37 2.02 3.92 6.17 3.15 0.44 0.34 0.26 0.19 0.32 0.27 0.10 0.05 0.05 0.06 0.06 0.07 0.07 0.10 0.06 0.09 0.09 0.06 0.07 0.09 0.10 0.17 0.23 0.37 0.33 0.16 0.07 0.05 0.07 0.00 0.00 0.00 0.00 0.00
0.59 0.66 0.68 0.60 0.71 0.68 0.73 0.78 1.05 1.81 4.12 4.53 2.17 0.40 0.77 0.60 0.23 0.15 0.05 0.06 0.06 0.04 0.05 0.03 0.08 0.11 0.05 0.08 0.09 0.08 0.06 0.05 0.05 0.05 0.07 0.20 0.30 0.35 0.21 0.21 0.32 0.09 0.01 0.01 0.00 0.00 0.00
0.54 0.59 0.67 0.60 0.64 0.69 0.66 0.64 0.84 1.07 2.60 3.90 2.42 0.71 0.67 0.56 0.16 0.11 0.10 0.12 0.11 0.09 0.09 0.08 0.07 0.15 0.16 0.21 0.20 0.17 0.11 0.10 0.03 0.04 0.06 0.06 0.17 0.45 0.40 0.37 0.21 0.12 0.11 0.08 0.08 0.03 0.02
0.54 0.62 0.73 0.67 0.60 0.64 0.62 0.61 0.65 0.67 1.30 3.05 3.47 1.65 1.31 0.75 0.25 0.08 0.09 0.09 0.15 0.27 0.24 0.13 0.20 0.17 0.20 0.36 0.38 0.26 0.14 0.12 0.09 0.10 0.04 0.05 0.09 0.32 0.29 0.26 0.11 0.14 0.06 0.06 0.02 0.14 0.07
0.51 0.64 0.72 0.74 0.65 0.61 0.64 0.55 0.43 0.51 0.91 1.69 2.47 1.98 2.70 1.65 0.28 0.16 0.16 0.10 0.10 0.37 0.50 0.32 0.39 0.42 0.37 0.45 0.38 0.18 0.10 0.08 0.10 0.26 0.21 0.09 0.15 0.26 0.17 0.24 0.06 0.06 0.11 0.13 0.47 0.39 0.22
0.53 0.67 0.66 0.67 0.59 0.61 0.67 0.53 0.39 0.50 0.95 1.41 1.44 1.17 2.90 1.75 0.42 0.29 0.20 0.09 0.08 0.39 0.65 0.43 0.58 0.59 0.69 0.53 0.29 0.15 0.06 0.05 0.03 0.10 0.27 0.23 0.20 0.17 0.23 0.26 0.10 0.04 0.17 0.48 0.59 0.32 0.52
0.49 0.66 0.64 0.66 0.53 0.50 0.62 0.60 0.55 0.63 1.15 1.33 1.21 1.09 1.94 1.90 0.85 0.43 0.33 0.12 0.08 0.15 0.44 0.54 0.33 0.20 0.17 0.22 0.18 0.18 0.12 0.07 0.04 0.03 0.06 0.13 0.16 0.28 0.19 0.15 0.16 0.16 0.18 0.10 0.07 0.08 0.07

GFSGBSN_prec_precacc_096.txt.gz
Total_Precipitation_Accumulation
0.07 0.06 0.07 0.06 0.05 0.04 0.03 0.03 0.04 0.03 0.02 0.01 0.02 0.01 0.02 0.02 0.02 0.02 0.02 0.01 0.00 0.01 0.01 0.00 0.01 0.02 0.01 0.00 0.00 0.00 0.00 0.00 0.00 0.00 0.00 0.00 0.00 0.00 0.00 0.00 0.00 0.00 0.00 0.00 0.00 0.00 0.00
0.08 0.07 0.06 0.06 0.05 0.03 0.04 0.04 0.03 0.02 0.01 0.01 0.01 0.01 0.00 0.01 0.02 0.02 0.01 0.00 0.01 0.01 0.01 0.01 0.01 0.03 0.00 0.00 0.00 0.00 0.00 0.00 0.00 0.00 0.00 0.00 0.00 0.00 0.00 0.00 0.00 0.00 0.00 0.00 0.00 0.00 0.00
0.09 0.08 0.07 0.07 0.05 0.04 0.04 0.04 0.03 0.02 0.03 0.03 0.01 0.01 0.00 0.00 0.01 0.01 0.01 0.01 0.00 0.01 0.01 0.01 0.02 0.03 0.01 0.00 0.00 0.00 0.00 0.00 0.00 0.00 0.00 0.00 0.00 0.00 0.00 0.00 0.00 0.00 0.00 0.00 0.00 0.00 0.00
0.10 0.09 0.09 0.10 0.08 0.06 0.05 0.04 0.03 0.02 0.03 0.03 0.02 0.01 0.01 0.00 0.00 0.00 0.01 0.00 0.00 0.01 0.01 0.01 0.02 0.02 0.00 0.00 0.00 0.00 0.00 0.00 0.00 0.00 0.00 0.00 0.00 0.00 0.00 0.00 0.00 0.00 0.00 0.00 0.00 0.00 0.00
0.13 0.11 0.10 0.09 0.09 0.08 0.07 0.05 0.03 0.02 0.02 0.02 0.02 0.01 0.01 0.01 0.00 0.01 0.02 0.00 0.00 0.01 0.01 0.01 0.01 0.01 0.00 0.00 0.00 0.00 0.00 0.00 0.00 0.00 0.00 0.00 0.00 0.00 0.00 0.00 0.00 0.00 0.00 0.00 0.00 0.00 0.00
0.14 0.12 0.09 0.08 0.09 0.08 0.09 0.07 0.06 0.04 0.04 0.03 0.02 0.03 0.02 0.01 0.00 0.01 0.01 0.00 0.00 0.00 0.00 0.00 0.01 0.00 0.00 0.00 0.00 0.00 0.00 0.01 0.02 0.00 0.00 0.00 0.00 0.00 0.00 0.00 0.00 0.00 0.00 0.00 0.00 0.00 0.00
0.14 0.11 0.08 0.08 0.08 0.09 0.09 0.09 0.11 0.09 0.05 0.04 0.03 0.03 0.02 0.01 0.01 0.02 0.00 0.00 0.00 0.00 0.00 0.00 0.00 0.00 0.00 0.00 0.00 0.00 0.00 0.00 0.01 0.00 0.01 0.03 0.00 0.00 0.01 0.00 0.00 0.00 0.00 0.00 0.00 0.00 0.00
0.14 0.14 0.13 0.13 0.13 0.14 0.14 0.15 0.13 0.10 0.07 0.05 0.05 0.04 0.03 0.02 0.03 0.04 0.01 0.00 0.00 0.00 0.00 0.00 0.00 0.00 0.00 0.00 0.00 0.00 0.00 0.00 0.00 0.01 0.03 0.01 0.00 0.00 0.00 0.00 0.00 0.00 0.00 0.00 0.00 0.00 0.00
0.18 0.16 0.15 0.15 0.16 0.14 0.12 0.13 0.13 0.13 0.11 0.10 0.07 0.05 0.04 0.04 0.05 0.02 0.01 0.00 0.00 0.00 0.00 0.00 0.00 0.00 0.00 0.00 0.00 0.00 0.00 0.00 0.00 0.00 0.01 0.03 0.00 0.00 0.00 0.00 0.00 0.00 0.00 0.00 0.00 0.00 0.00
0.23 0.19 0.16 0.15 0.15 0.15 0.14 0.13 0.12 0.11 0.11 0.10 0.10 0.07 0.05 0.07 0.02 0.00 0.00 0.00 0.00 0.00 0.00 0.00 0.00 0.00 0.00 0.00 0.00 0.00 0.00 0.00 0.00 0.00 0.00 0.02 0.00 0.00 0.00 0.00 0.00 0.00 0.00 0.00 0.00 0.00 0.00
0.21 0.19 0.18 0.17 0.16 0.15 0.13 0.10 0.10 0.12 0.13 0.15 0.12 0.09 0.10 0.11 0.02 0.01 0.00 0.00 0.00 0.03 0.02 0.00 0.00 0.00 0.00 0.00 0.00 0.00 0.00 0.00 0.00 0.00 0.00 0.03 0.00 0.00 0.00 0.00 0.00 0.01 0.00 0.00 0.00 0.00 0.02
0.30 0.22 0.19 0.19 0.18 0.16 0.14 0.14 0.15 0.14 0.14 0.15 0.18 0.14 0.22 0.18 0.05 0.00 0.01 0.04 0.14 0.12 0.02 0.00 0.00 0.00 0.00 0.00 0.00 0.00 0.00 0.00 0.00 0.00 0.00 0.00 0.01 0.01 0.00 0.00 0.00 0.00 0.00 0.00 0.00 0.00 0.04
0.45 0.34 0.28 0.24 0.21 0.18 0.17 0.18 0.15 0.14 0.14 0.17 0.20 0.19 0.27 0.13 0.07 0.08 0.16 0.31 0.32 0.10 0.00 0.00 0.00 0.00 0.00 0.00 0.00 0.00 0.00 0.00 0.00 0.00 0.00 0.00 0.00 0.01 0.01 0.00 0.00 0.00 0.00 0.02 0.17 0.09 0.03
0.61 0.46 0.37 0.27 0.22 0.20 0.18 0.16 0.18 0.17 0.16 0.23 0.23 0.24 0.24 0.14 0.05 0.10 0.34 0.67 0.30 0.01 0.00 0.00 0.00 0.00 0.00 0.00 0.00 0.00 0.00 0.00 0.00 0.00 0.00 0.00 0.00 0.00 0.01 0.00 0.01 0.00 0.00 0.03 0.15 0.12 0.11
0.69 0.60 0.46 0.38 0.30 0.26 0.23 0.19 0.21 0.21 0.25 0.27 0.44 0.36 0.32 0.11 0.08 0.30 0.77 0.59 0.07 0.00 0.00 0.00 0.00 0.00 0.00 0.00 0.00 0.00 0.00 0.00 0.00 0.00 0.01 0.01 0.02 0.02 0.01 0.00 0.00 0.01 0.00 0.01 0.03 0.05 0.10
0.79 0.74 0.61 0.47 0.36 0.28 0.28 0.30 0.27 0.28 0.34 0.47 0.57 0.58 0.26 0.10 0.36 0.82 1.09 0.41 0.01 0.00 0.00 0.00 0.00 0.00 0.01 0.00 0.00 0.00 0.00 0.00 0.00 0.00 0.00 0.02 0.06 0.01 0.00 0.00 0.00 0.00 0.00 0.01 0.01 0.06 0.05
0.91 0.80 0.70 0.59 0.52 0.41 0.43 0.41 0.44 0.40 0.41 0.71 1.26 1.19 0.28 0.16 1.09 1.74 1.09 0.24 0.02 0.00 0.01 0.02 0.01 0.04 0.04 0.06 0.02 0.01 0.02 0.09 0.05 0.02 0.03 0.03 0.08 0.07 0.02 0.00 0.00 0.00 0.00 0.00 0.01 0.00 0.01
1.09 1.03 0.77 0.71 0.63 0.52 0.54 0.56 0.58 0.61 0.69 1.41 1.99 1.45 0.40 0.44 1.42 1.19 0.38 0.10 0.05 0.01 0.01 0.05 0.02 0.02 0.14 0.19 0.09 0.06 0.12 0.16 0.10 0.06 0.02 0.04 0.05 0.04 0.01 0.01 0.00 0.00 0.00 0.01 0.01 0.01 0.01
1.03 1.09 0.90 0.77 0.77 0.67 0.68 0.76 0.74 0.77 1.09 1.79 2.35 1.37 1.17 0.85 0.82 0.27 0.16 0.15 0.09 0.06 0.03 0.04 0.05 0.04 0.08 0.13 0.07 0.13 0.12 0.12 0.16 0.09 0.03 0.03 0.05 0.02 0.01 0.03 0.03 0.02 0.00 0.00 0.00 0.00 0.00
1.01 1.06 0.91 0.88 0.88 0.87 0.77 0.89 1.11 1.09 1.25 2.00 2.85 1.94 2.09 1.56 0.52 0.18 0.18 0.21 0.17 0.07 0.06 0.04 0.02 0.02 0.04 0.03 0.02 0.06 0.15 0.14 0.05 0.07 0.04 0.03 0.03 0.04 0.04 0.07 0.03 0.03 0.02 0.00 0.01 0.01 0.00
1.05 0.95 0.91 0.89 0.94 1.05 1.05 1.00 1.23 1.42 1.67 3.44 3.91 1.37 0.64 0.98 0.41 0.12 0.16 0.20 0.19 0.17 0.08 0.06 0.09 0.05 0.03 0.06 0.03 0.03 0.12 0.11 0.09 0.05 0.07 0.10 0.05 0.00 0.01 0.00 0.00 0.00 0.02 0.01 0.02 0.02 0.02
1.03 0.93 0.86 0.90 0.97 1.13 1.25 1.23 1.29 1.73 2.42 4.81 4.08 0.79 0.21 0.10 0.13 0.32 0.21 0.11 0.06 0.09 0.18 0.13 0.10 0.07 0.04 0.06 0.06 0.09 0.08 0.14 0.12 0.08 0.08 0.21 0.20 0.05 0.01 0.00 0.00 0.00 0.00 0.00 0.00 0.00 0.00
0.84 0.86 0.75 0.80 0.84 0.92 1.05 1.26 1.41 2.05 3.96 6.18 3.16 0.44 0.34 0.26 0.19 0.33 0.28 0.11 0.05 0.06 0.06 0.07 0.07 0.08 0.10 0.06 0.10 0.10 0.08 0.08 0.10 0.10 0.17 0.23 0.37 0.33 0.16 0.07 0.05 0.07 0.00 0.00 0.00 0.00 0.00
0.60 0.67 0.69 0.61 0.72 0.68 0.75 0.83 1.11 1.90 4.17 4.53 2.18 0.40 0.78 0.60 0.23 0.15 0.05 0.06 0.06 0.05 0.07 0.04 0.08 0.12 0.06 0.09 0.10 0.09 0.08 0.06 0.05 0.05 0.07 0.20 0.30 0.35 0.21 0.21 0.32 0.09 0.01 0.01 0.00 0.00 0.00
0.55 0.60 0.68 0.61 0.66 0.70 0.67 0.65 0.87 1.13 2.69 3.91 2.42 0.72 0.67 0.56 0.16 0.11 0.10 0.12 0.11 0.09 0.09 0.08 0.08 0.16 0.16 0.22 0.21 0.18 0.11 0.10 0.03 0.04 0.06 0.06 0.17 0.45 0.40 0.37 0.21 0.13 0.11 0.08 0.08 0.03 0.02
0.55 0.62 0.74 0.69 0.62 0.66 0.63 0.62 0.67 0.70 1.40 3.20 3.49 1.65 1.33 0.76 0.25 0.08 0.09 0.09 0.15 0.27 0.24 0.13 0.23 0.19 0.23 0.39 0.48 0.27 0.14 0.12 0.10 0.10 0.04 0.05 0.09 0.32 0.29 0.26 0.11 0.15 0.07 0.06 0.02 0.15 0.07
0.52 0.65 0.73 0.76 0.67 0.62 0.66 0.56 0.44 0.53 0.94 1.88 2.60 2.00 2.82 1.72 0.28 0.16 0.16 0.10 0.10 0.38 0.51 0.33 0.42 0.46 0.41 0.46 0.39 0.19 0.10 0.08 0.10 0.28 0.23 0.09 0.15 0.26 0.17 0.25 0.06 0.06 0.11 0.13 0.52 0.49 0.23
0.53 0.67 0.67 0.68 0.60 0.63 0.70 0.56 0.40 0.51 0.99 1.46 1.49 1.18 3.00 1.79 0.42 0.29 0.20 0.09 0.08 0.40 0.67 0.46 0.62 0.59 0.70 0.53 0.29 0.15 0.06 0.06 0.04 0.15 0.46 0.25 0.21 0.17 0.23 0.27 0.10 0.04 0.17 0.48 0.72 0.41 0.52
0.50 0.66 0.65 0.67 0.54 0.51 0.65 0.62 0.56 0.63 1.18 1.36 1.22 1.10 1.95 1.95 0.86 0.43 0.33 0.12 0.08 0.16 0.46 0.60 0.44 0.22 0.18 0.22 0.18 0.18 0.12 0.09 0.07 0.09 0.21 0.16 0.16 0.28 0.19 0.15 0.17 0.16 0.18 0.10 0.07 0.08 0.07

GFSGBSN_prec_precacc_099.txt.gz
Total_Precipitation_Accumulation
0.08 0.06 0.07 0.06 0.05 0.04 0.04 0.04 0.04 0.04 0.02 0.01 0.02 0.01 0.02 0.02 0.02 0.02 0.02 0.01 0.00 0.01 0.01 0.00 0.01 0.02 0.01 0.00 0.00 0.00 0.00 0.00 0.00 0.00 0.00 0.00 0.00 0.00 0.00 0.00 0.00 0.00 0.00 0.00 0.00 0.00 0.00
0.08 0.08 0.07 0.07 0.05 0.03 0.04 0.04 0.04 0.03 0.02 0.01 0.01 0.01 0.00 0.01 0.02 0.02 0.01 0.00 0.01 0.01 0.01 0.01 0.01 0.03 0.00 0.00 0.00 0.00 0.00 0.00 0.00 0.00 0.00 0.00 0.00 0.00 0.00 0.00 0.00 0.00 0.00 0.00 0.00 0.00 0.00
0.10 0.09 0.08 0.07 0.05 0.05 0.04 0.04 0.03 0.03 0.04 0.03 0.02 0.02 0.00 0.00 0.01 0.01 0.01 0.01 0.00 0.01 0.01 0.01 0.02 0.03 0.01 0.00 0.00 0.00 0.00 0.00 0.00 0.00 0.00 0.00 0.00 0.00 0.00 0.00 0.00 0.00 0.00 0.00 0.00 0.00 0.00
0.10 0.09 0.09 0.11 0.09 0.07 0.06 0.04 0.03 0.03 0.03 0.03 0.03 0.02 0.01 0.00 0.00 0.00 0.01 0.00 0.00 0.01 0.01 0.01 0.02 0.02 0.00 0.00 0.00 0.00 0.00 0.00 0.00 0.00 0.00 0.00 0.00 0.00 0.00 0.00 0.00 0.00 0.00 0.00 0.00 0.00 0.00
0.13 0.11 0.10 0.09 0.10 0.09 0.07 0.05 0.03 0.02 0.02 0.03 0.03 0.02 0.02 0.01 0.01 0.01 0.02 0.00 0.00 0.01 0.01 0.01 0.01 0.01 0.00 0.00 0.00 0.00 0.00 0.00 0.00 0.00 0.00 0.00 0.00 0.00 0.00 0.00 0.00 0.00 0.00 0.00 0.00 0.00 0.00
0.14 0.12 0.09 0.08 0.09 0.09 0.09 0.08 0.06 0.05 0.05 0.05 0.04 0.04 0.03 0.02 0.00 0.01 0.01 0.00 0.00 0.00 0.00 0.00 0.01 0.00 0.00 0.00 0.00 0.00 0.00 0.01 0.02 0.00 0.00 0.00 0.00 0.00 0.00 0.00 0.00 0.00 0.00 0.00 0.00 0.00 0.00
0.14 0.11 0.09 0.09 0.08 0.09 0.09 0.10 0.12 0.10 0.06 0.05 0.04 0.04 0.04 0.02 0.01 0.02 0.00 0.00 0.00 0.00 0.00 0.00 0.00 0.00 0.00 0.00 0.00 0.00 0.00 0.00 0.01 0.00 0.01 0.03 0.00 0.00 0.01 0.00 0.00 0.00 0.00 0.00 0.00 0.00 0.00
0.14 0.14 0.13 0.13 0.13 0.14 0.14 0.15 0.13 0.10 0.08 0.06 0.06 0.06 0.04 0.03 0.04 0.04 0.01 0.00 0.00 0.00 0.00 0.00 0.00 0.00 0.00 0.00 0.00 0.00 0.00 0.00 0.00 0.01 0.03 0.01 0.00 0.00 0.00 0.00 0.00 0.00 0.00 0.00 0.00 0.00 0.00
0.18 0.16 0.15 0.15 0.16 0.14 0.12 0.13 0.13 0.13 0.11 0.10 0.08 0.07 0.06 0.05 0.06 0.02 0.01 0.00 0.00 0.00 0.00 0.00 0.00 0.00 0.00 0.00 0.00 0.00 0.00 0.00 0.00 0.00 0.01 0.03 0.00 0.00 0.00 0.00 0.00 0.00 0.00 0.00 0.00 0.00 0.00
0.23 0.19 0.16 0.15 0.16 0.15 0.14 0.13 0.12 0.11 0.11 0.10 0.11 0.10 0.09 0.10 0.03 0.00 0.00 0.00 0.00 0.00 0.00 0.00 0.00 0.00 0.00 0.00 0.00 0.00 0.00 0.00 0.00 0.00 0.00 0.02 0.00 0.00 0.00 0.00 0.00 0.00 0.00 0.00 0.00 0.00 0.00
0.21 0.19 0.18 0.17 0.16 0.15 0.13 0.11 0.11 0.12 0.14 0.17 0.16 0.11 0.14 0.19 0.04 0.01 0.00 0.00 0.00 0.03 0.02 0.00 0.00 0.00 0.00 0.00 0.00 0.00 0.00 0.00 0.00 0.00 0.00 0.03 0.00 0.00 0.00 0.00 0.00 0.01 0.00 0.00 0.00 0.00 0.02
0.30 0.22 0.20 0.19 0.18 0.16 0.15 0.15 0.15 0.16 0.15 0.17 0.21 0.17 0.26 0.21 0.05 0.00 0.01 0.05 0.14 0.12 0.02 0.00 0.00 0.00 0.00 0.00 0.00 0.00 0.00 0.00 0.00 0.00 0.00 0.00 0.01 0.01 0.00 0.00 0.00 0.00 0.00 0.00 0.00 0.00 0.04
0.45 0.34 0.28 0.24 0.21 0.18 0.17 0.18 0.16 0.15 0.15 0.17 0.22 0.23 0.28 0.13 0.07 0.08 0.16 0.34 0.33 0.10 0.00 0.00 0.00 0.00 0.00 0.00 0.00 0.00 0.00 0.00 0.00 0.00 0.00 0.00 0.00 0.01 0.01 0.00 0.00 0.00 0.00 0.02 0.17 0.09 0.03
0.61 0.46 0.37 0.27 0.23 0.20 0.18 0.17 0.18 0.18 0.16 0.23 0.24 0.25 0.24 0.14 0.05 0.10 0.35 0.67 0.31 0.01 0.00 0.00 0.00 0.00 0.00 0.00 0.00 0.00 0.00 0.00 0.00 0.00 0.00 0.00 0.00 0.00 0.01 0.00 0.01 0.00 0.00 0.03 0.15 0.12 0.11
0.69 0.60 0.46 0.38 0.30 0.26 0.23 0.19 0.21 0.22 0.26 0.28 0.45 0.36 0.32 0.11 0.08 0.30 0.78 0.60 0.07 0.00 0.00 0.00 0.00 0.00 0.00 0.00 0.00 0.00 0.00 0.00 0.00 0.00 0.01 0.01 0.02 0.02 0.01 0.00 0.00 0.01 0.00 0.01 0.03 0.05 0.10
0.79 0.75 0.61 0.47 0.36 0.28 0.28 0.30 0.27 0.30 0.35 0.47 0.57 0.58 0.26 0.10 0.36 0.82 1.16 0.44 0.01 0.00 0.00 0.00 0.00 0.00 0.01 0.00 0.00 0.00 0.00 0.00 0.00 0.00 0.00 0.02 0.06 0.01 0.00 0.00 0.00 0.00 0.00 0.01 0.01 0.06 0.05
0.91 0.80 0.70 0.60 0.52 0.42 0.43 0.43 0.46 0.41 0.43 0.72 1.26 1.19 0.28 0.16 1.09 1.74 1.10 0.24 0.02 0.00 0.01 0.02 0.01 0.04 0.04 0.06 0.03 0.01 0.02 0.09 0.05 0.02 0.03 0.03 0.08 0.07 0.02 0.00 0.00 0.00 0.00 0.00 0.01 0.00 0.02
1.09 1.03 0.78 0.71 0.63 0.52 0.55 0.58 0.60 0.62 0.71 1.42 1.99 1.45 0.40 0.45 1.42 1.19 0.38 0.10 0.05 0.01 0.01 0.05 0.02 0.02 0.15 0.20 0.10 0.06 0.13 0.17 0.11 0.07 0.02 0.04 0.06 0.04 0.02 0.02 0.00 0.00 0.00 0.01 0.01 0.01 0.01
1.04 1.10 0.90 0.77 0.78 0.67 0.69 0.78 0.75 0.78 1.10 1.79 2.35 1.37 1.17 0.86 0.85 0.27 0.16 0.15 0.09 0.06 0.03 0.04 0.06 0.04 0.09 0.14 0.10 0.15 0.14 0.12 0.16 0.10 0.08 0.06 0.07 0.03 0.02 0.04 0.04 0.03 0.00 0.00 0.00 0.00 0.00
1.01 1.06 0.91 0.89 0.89 0.87 0.78 0.92 1.14 1.11 1.27 2.01 2.85 1.94 2.09 1.56 0.55 0.19 0.19 0.22 0.18 0.07 0.06 0.04 0.02 0.02 0.04 0.04 0.04 0.09 0.18 0.16 0.05 0.08 0.11 0.09 0.06 0.05 0.05 0.08 0.03 0.04 0.02 0.00 0.01 0.01 0.00
1.05 0.95 0.92 0.90 0.95 1.06 1.05 1.00 1.24 1.47 1.70 3.45 3.93 1.37 0.64 0.99 0.43 0.13 0.18 0.23 0.20 0.17 0.08 0.07 0.09 0.06 0.04 0.06 0.04 0.04 0.14 0.17 0.11 0.07 0.13 0.17 0.10 0.02 0.01 0.00 0.00 0.01 0.03 0.01 0.02 0.02 0.02
1.03 0.93 0.87 0.92 1.00 1.17 1.29 1.26 1.30 1.78 2.45 4.82 4.08 0.79 0.21 0.10 0.13 0.32 0.22 0.11 0.07 0.10 0.18 0.13 0.12 0.10 0.07 0.08 0.07 0.10 0.10 0.19 0.14 0.10 0.14 0.24 0.25 0.06 0.01 0.00 0.00 0.00 0.00 0.00 0.00 0.00 0.00
0.84 0.87 0.76 0.82 0.86 0.95 1.08 1.30 1.46 2.14 4.00 6.19 3.16 0.44 0.34 0.26 0.19 0.33 0.28 0.11 0.06 0.07 0.06 0.08 0.08 0.10 0.13 0.07 0.11 0.10 0.09 0.09 0.10 0.10 0.17 0.23 0.38 0.33 0.16 0.07 0.05 0.07 0.00 0.00 0.00 0.00 0.01
0.60 0.68 0.70 0.62 0.74 0.69 0.76 0.85 1.15 1.96 4.24 4.53 2.18 0.40 0.78 0.60 0.23 0.15 0.05 0.06 0.06 0.05 0.07 0.04 0.09 0.12 0.07 0.10 0.10 0.09 0.08 0.06 0.05 0.05 0.07 0.20 0.30 0.35 0.21 0.21 0.32 0.09 0.03 0.03 0.02 0.02 0.01
0.56 0.61 0.70 0.61 0.66 0.71 0.68 0.67 0.89 1.17 2.83 3.96 2.42 0.72 0.67 0.56 0.16 0.11 0.10 0.12 0.11 0.09 0.09 0.08 0.08 0.17 0.18 0.24 0.23 0.18 0.11 0.10 0.03 0.04 0.06 0.06 0.17 0.45 0.40 0.37 0.21 0.13 0.13 0.10 0.10 0.09 0.03
0.56 0.63 0.75 0.70 0.63 0.68 0.66 0.63 0.68 0.72 1.45 3.29 3.50 1.65 1.33 0.77 0.25 0.08 0.09 0.09 0.15 0.27 0.24 0.13 0.23 0.21 0.29 0.42 0.49 0.29 0.14 0.13 0.10 0.10 0.04 0.05 0.09 0.32 0.29 0.26 0.11 0.15 0.07 0.06 0.03 0.18 0.07
0.52 0.65 0.74 0.76 0.68 0.65 0.69 0.60 0.47 0.56 0.97 1.95 2.65 2.00 2.85 1.74 0.28 0.16 0.16 0.10 0.10 0.38 0.51 0.33 0.42 0.47 0.45 0.47 0.39 0.19 0.10 0.08 0.10 0.29 0.24 0.09 0.15 0.26 0.17 0.25 0.06 0.06 0.11 0.13 0.53 0.49 0.23
0.53 0.67 0.67 0.69 0.62 0.64 0.73 0.60 0.46 0.55 1.01 1.50 1.52 1.18 3.06 1.82 0.42 0.29 0.20 0.09 0.08 0.40 0.67 0.46 0.62 0.59 0.70 0.53 0.29 0.15 0.06 0.06 0.06 0.17 0.49 0.27 0.21 0.18 0.24 0.27 0.10 0.04 0.17 0.48 0.72 0.41 0.52
0.50 0.66 0.65 0.67 0.54 0.52 0.66 0.64 0.62 0.71 1.21 1.38 1.24 1.11 2.00 2.03 0.88 0.43 0.33 0.12 0.08 0.16 0.46 0.60 0.50 0.37 0.23 0.23 0.18 0.18 0.13 0.10 0.09 0.10 0.40 0.33 0.17 0.28 0.19 0.15 0.17 0.16 0.18 0.10 0.07 0.08 0.07

GFSGBSN_prec_precacc_102.txt.gz
Total_Precipitation_Accumulation
0.08 0.06 0.07 0.06 0.06 0.04 0.04 0.04 0.05 0.04 0.02 0.02 0.02 0.01 0.02 0.02 0.02 0.02 0.02 0.01 0.00 0.01 0.01 0.00 0.01 0.02 0.01 0.00 0.00 0.00 0.00 0.00 0.00 0.00 0.00 0.00 0.00 0.00 0.00 0.00 0.00 0.00 0.00 0.00 0.00 0.00 0.00
0.08 0.08 0.07 0.07 0.05 0.04 0.04 0.04 0.04 0.03 0.02 0.02 0.01 0.01 0.00 0.01 0.02 0.02 0.01 0.00 0.01 0.01 0.01 0.01 0.01 0.03 0.01 0.00 0.00 0.00 0.00 0.00 0.00 0.00 0.00 0.00 0.00 0.00 0.00 0.00 0.00 0.00 0.00 0.00 0.00 0.00 0.00
0.10 0.09 0.08 0.08 0.06 0.06 0.05 0.04 0.03 0.03 0.04 0.03 0.02 0.02 0.01 0.00 0.01 0.01 0.01 0.01 0.00 0.01 0.01 0.01 0.02 0.04 0.01 0.00 0.00 0.00 0.00 0.00 0.00 0.00 0.00 0.00 0.00 0.00 0.00 0.00 0.00 0.00 0.00 0.00 0.00 0.00 0.00
0.11 0.10 0.10 0.11 0.09 0.07 0.06 0.04 0.04 0.03 0.04 0.03 0.03 0.02 0.01 0.00 0.00 0.00 0.01 0.00 0.00 0.01 0.01 0.01 0.02 0.03 0.00 0.00 0.00 0.00 0.00 0.00 0.00 0.00 0.00 0.00 0.00 0.00 0.00 0.00 0.00 0.00 0.00 0.00 0.00 0.00 0.00
0.13 0.12 0.10 0.10 0.10 0.09 0.07 0.06 0.04 0.02 0.03 0.03 0.03 0.02 0.02 0.01 0.01 0.01 0.02 0.00 0.00 0.01 0.01 0.01 0.01 0.01 0.00 0.00 0.00 0.00 0.00 0.00 0.00 0.00 0.00 0.00 0.00 0.00 0.00 0.00 0.00 0.00 0.00 0.00 0.00 0.00 0.00
0.14 0.12 0.09 0.08 0.09 0.09 0.09 0.08 0.06 0.05 0.05 0.05 0.04 0.04 0.03 0.02 0.00 0.01 0.01 0.00 0.00 0.00 0.00 0.00 0.01 0.00 0.00 0.00 0.00 0.00 0.00 0.01 0.02 0.00 0.00 0.00 0.00 0.00 0.00 0.00 0.00 0.00 0.00 0.00 0.00 0.00 0.00
0.14 0.11 0.09 0.09 0.09 0.09 0.09 0.10 0.12 0.10 0.06 0.05 0.04 0.04 0.04 0.03 0.01 0.03 0.01 0.00 0.00 0.00 0.00 0.00 0.00 0.00 0.00 0.00 0.00 0.00 0.00 0.00 0.01 0.00 0.01 0.03 0.00 0.00 0.01 0.00 0.00 0.00 0.00 0.00 0.00 0.00 0.00
0.14 0.14 0.13 0.13 0.14 0.14 0.15 0.15 0.13 0.10 0.08 0.06 0.06 0.06 0.05 0.03 0.04 0.06 0.01 0.00 0.00 0.00 0.00 0.00 0.00 0.00 0.00 0.00 0.00 0.00 0.00 0.00 0.00 0.01 0.03 0.01 0.00 0.00 0.00 0.00 0.00 0.00 0.00 0.00 0.00 0.00 0.00
0.18 0.16 0.15 0.15 0.16 0.14 0.12 0.13 0.13 0.13 0.11 0.10 0.08 0.07 0.07 0.05 0.06 0.02 0.01 0.00 0.00 0.01 0.01 0.00 0.00 0.00 0.00 0.00 0.00 0.00 0.00 0.00 0.00 0.00 0.01 0.03 0.00 0.00 0.00 0.00 0.00 0.00 0.00 0.00 0.00 0.00 0.00
0.23 0.20 0.17 0.15 0.16 0.15 0.14 0.13 0.12 0.11 0.11 0.10 0.11 0.10 0.09 0.12 0.04 0.01 0.01 0.00 0.02 0.06 0.03 0.00 0.00 0.00 0.00 0.00 0.00 0.00 0.00 0.00 0.00 0.00 0.00 0.02 0.00 0.00 0.00 0.00 0.00 0.00 0.00 0.00 0.00 0.00 0.00
0.21 0.20 0.18 0.17 0.16 0.15 0.13 0.11 0.11 0.12 0.14 0.18 0.16 0.11 0.16 0.24 0.15 0.10 0.02 0.00 0.10 0.12 0.02 0.00 0.00 0.00 0.00 0.00 0.00 0.00 0.00 0.00 0.00 0.00 0.00 0.03 0.00 0.00 0.00 0.00 0.00 0.01 0.00 0.00 0.00 0.00 0.02
0.30 0.22 0.20 0.19 0.18 0.16 0.15 0.15 0.16 0.16 0.15 0.17 0.21 0.18 0.27 0.24 0.12 0.02 0.01 0.08 0.24 0.23 0.02 0.00 0.00 0.00 0.00 0.00 0.00 0.00 0.00 0.00 0.00 0.00 0.00 0.00 0.01 0.01 0.00 0.00 0.00 0.00 0.00 0.00 0.00 0.00 0.04
0.45 0.34 0.28 0.24 0.21 0.18 0.17 0.18 0.16 0.15 0.15 0.17 0.22 0.23 0.30 0.14 0.08 0.08 0.17 0.45 0.63 0.14 0.00 0.00 0.00 0.00 0.00 0.00 0.00 0.00 0.00 0.00 0.00 0.00 0.00 0.00 0.00 0.01 0.01 0.00 0.00 0.00 0.00 0.02 0.17 0.09 0.03
0.61 0.46 0.37 0.27 0.23 0.20 0.18 0.17 0.18 0.18 0.16 0.23 0.24 0.25 0.24 0.14 0.07 0.10 0.35 0.87 0.38 0.01 0.00 0.00 0.00 0.00 0.00 0.00 0.00 0.00 0.00 0.00 0.00 0.00 0.00 0.00 0.00 0.00 0.01 0.00 0.01 0.00 0.00 0.03 0.15 0.12 0.11
0.70 0.60 0.47 0.38 0.30 0.26 0.23 0.19 0.21 0.22 0.26 0.28 0.45 0.36 0.32 0.11 0.08 0.30 0.79 0.65 0.11 0.04 0.00 0.00 0.00 0.00 0.00 0.00 0.00 0.00 0.00 0.00 0.00 0.00 0.01 0.01 0.02 0.02 0.01 0.00 0.00 0.01 0.00 0.01 0.03 0.05 0.10
0.80 0.75 0.62 0.47 0.36 0.28 0.28 0.30 0.27 0.30 0.35 0.47 0.57 0.58 0.26 0.10 0.36 0.82 1.16 0.46 0.02 0.01 0.00 0.00 0.00 0.00 0.01 0.00 0.00 0.00 0.00 0.00 0.00 0.00 0.00 0.02 0.06 0.01 0.00 0.00 0.00 0.00 0.00 0.01 0.01 0.06 0.05
0.91 0.80 0.70 0.60 0.52 0.42 0.43 0.43 0.46 0.41 0.43 0.72 1.26 1.19 0.28 0.16 1.09 1.74 1.10 0.25 0.02 0.00 0.01 0.02 0.01 0.04 0.04 0.06 0.03 0.01 0.03 0.10 0.05 0.02 0.03 0.03 0.08 0.07 0.02 0.00 0.00 0.00 0.00 0.00 0.01 0.00 0.02
1.09 1.03 0.78 0.72 0.63 0.52 0.55 0.58 0.61 0.62 0.71 1.42 1.99 1.45 0.40 0.45 1.43 1.19 0.38 0.10 0.05 0.01 0.01 0.05 0.02 0.02 0.16 0.20 0.10 0.06 0.14 0.17 0.11 0.07 0.03 0.04 0.06 0.04 0.02 0.02 0.00 0.00 0.00 0.01 0.01 0.01 0.01
1.04 1.10 0.90 0.77 0.78 0.67 0.69 0.78 0.77 0.79 1.11 1.79 2.35 1.37 1.17 0.86 0.87 0.28 0.16 0.15 0.09 0.06 0.03 0.04 0.06 0.05 0.09 0.14 0.10 0.15 0.14 0.12 0.16 0.10 0.09 0.07 0.08 0.03 0.02 0.04 0.04 0.03 0.00 0.00 0.00 0.00 0.00
1.02 1.07 0.91 0.89 0.90 0.88 0.78 0.92 1.17 1.14 1.28 2.01 2.85 1.94 2.09 1.56 0.56 0.20 0.19 0.24 0.18 0.07 0.06 0.04 0.02 0.02 0.04 0.04 0.04 0.09 0.18 0.16 0.05 0.08 0.11 0.09 0.06 0.06 0.06 0.08 0.03 0.04 0.02 0.00 0.01 0.01 0.00
1.05 0.96 0.92 0.90 0.95 1.06 1.06 1.02 1.26 1.52 1.70 3.45 3.94 1.37 0.64 0.99 0.45 0.13 0.19 0.23 0.20 0.17 0.08 0.07 0.09 0.06 0.04 0.06 0.04 0.04 0.14 0.17 0.13 0.11 0.16 0.20 0.11 0.04 0.02 0.01 0.00 0.01 0.04 0.01 0.02 0.02 0.02
1.03 0.93 0.87 0.92 1.00 1.18 1.31 1.30 1.35 1.83 2.47 4.83 4.08 0.79 0.21 0.10 0.13 0.32 0.22 0.12 0.10 0.11 0.18 0.13 0.12 0.10 0.08 0.09 0.08 0.10 0.10 0.21 0.16 0.14 0.21 0.30 0.30 0.11 0.04 0.01 0.00 0.01 0.00 0.01 0.00 0.00 0.00
0.84 0.87 0.76 0.82 0.87 0.96 1.10 1.33 1.51 2.20 4.06 6.19 3.16 0.44 0.34 0.26 0.19 0.33 0.28 0.12 0.09 0.07 0.06 0.08 0.08 0.10 0.14 0.09 0.12 0.10 0.09 0.09 0.11 0.11 0.17 0.25 0.40 0.35 0.16 0.07 0.05 0.07 0.00 0.00 0.00 0.00 0.01
0.60 0.68 0.70 0.62 0.74 0.70 0.76 0.87 1.20 2.01 4.33 4.53 2.18 0.40 0.78 0.60 0.23 0.15 0.05 0.06 0.06 0.05 0.07 0.04 0.09 0.12 0.07 0.11 0.10 0.09 0.08 0.06 0.05 0.05 0.07 0.20 0.31 0.35 0.21 0.21 0.32 0.10 0.04 0.03 0.02 0.02 0.01
0.56 0.61 0.70 0.62 0.67 0.72 0.69 0.68 0.91 1.20 2.91 4.04 2.43 0.72 0.67 0.56 0.16 0.11 0.10 0.12 0.11 0.09 0.09 0.08 0.08 0.17 0.19 0.27 0.26 0.19 0.11 0.10 0.03 0.04 0.06 0.06 0.17 0.45 0.40 0.37 0.21 0.16 0.14 0.11 0.11 0.12 0.05
0.56 0.64 0.75 0.70 0.64 0.68 0.66 0.64 0.70 0.75 1.49 3.37 3.53 1.66 1.35 0.77 0.25 0.08 0.09 0.09 0.15 0.27 0.24 0.13 0.23 0.21 0.32 0.45 0.53 0.29 0.14 0.13 0.11 0.10 0.04 0.05 0.09 0.32 0.29 0.26 0.11 0.17 0.10 0.06 0.04 0.19 0.08
0.53 0.65 0.74 0.77 0.68 0.65 0.69 0.61 0.49 0.60 1.02 1.99 2.68 2.01 2.91 1.79 0.28 0.16 0.16 0.10 0.10 0.38 0.51 0.33 0.42 0.47 0.47 0.48 0.41 0.19 0.10 0.08 0.11 0.30 0.24 0.09 0.15 0.26 0.17 0.25 0.06 0.07 0.12 0.14 0.54 0.49 0.23
0.54 0.68 0.67 0.69 0.62 0.65 0.74 0.62 0.48 0.60 1.09 1.61 1.54 1.19 3.10 1.87 0.43 0.29 0.20 0.09 0.08 0.40 0.67 0.46 0.62 0.60 0.70 0.54 0.30 0.15 0.06 0.06 0.06 0.18 0.49 0.28 0.22 0.18 0.24 0.27 0.10 0.04 0.17 0.48 0.72 0.41 0.52
0.50 0.66 0.65 0.67 0.54 0.52 0.66 0.64 0.63 0.76 1.31 1.45 1.24 1.11 2.01 2.12 0.91 0.43 0.33 0.12 0.08 0.16 0.46 0.60 0.50 0.38 0.28 0.37 0.23 0.19 0.13 0.11 0.09 0.11 0.41 0.44 0.28 0.33 0.19 0.15 0.17 0.16 0.18 0.10 0.07 0.08 0.07

GFSGBSN_prec_precacc_105.txt.gz
Total_Precipitation_Accumulation
0.08 0.06 0.07 0.06 0.06 0.04 0.04 0.04 0.05 0.04 0.02 0.02 0.02 0.01 0.02 0.02 0.02 0.02 0.02 0.01 0.00 0.01 0.01 0.00 0.01 0.02 0.01 0.00 0.00 0.00 0.00 0.00 0.00 0.00 0.00 0.00 0.00 0.00 0.00 0.00 0.00 0.00 0.00 0.00 0.00 0.00 0.00
0.09 0.08 0.07 0.07 0.06 0.04 0.05 0.04 0.04 0.03 0.02 0.02 0.01 0.01 0.00 0.01 0.02 0.02 0.01 0.00 0.01 0.01 0.01 0.01 0.01 0.03 0.01 0.00 0.00 0.00 0.00 0.00 0.00 0.00 0.00 0.00 0.00 0.00 0.00 0.00 0.00 0.00 0.00 0.00 0.00 0.00 0.00
0.10 0.09 0.08 0.08 0.06 0.06 0.05 0.04 0.03 0.03 0.04 0.03 0.02 0.02 0.01 0.00 0.01 0.01 0.01 0.01 0.00 0.01 0.01 0.01 0.02 0.04 0.01 0.00 0.00 0.00 0.00 0.00 0.00 0.00 0.00 0.00 0.00 0.00 0.00 0.00 0.00 0.00 0.00 0.00 0.00 0.00 0.00
0.11 0.10 0.10 0.11 0.09 0.07 0.06 0.04 0.04 0.03 0.04 0.04 0.03 0.02 0.01 0.00 0.00 0.00 0.01 0.00 0.00 0.01 0.01 0.01 0.02 0.03 0.00 0.00 0.00 0.00 0.00 0.00 0.00 0.00 0.00 0.00 0.00 0.00 0.00 0.00 0.00 0.00 0.00 0.00 0.00 0.00 0.00
0.13 0.12 0.10 0.10 0.10 0.09 0.07 0.06 0.04 0.02 0.03 0.03 0.03 0.02 0.02 0.01 0.01 0.01 0.02 0.00 0.00 0.01 0.01 0.01 0.01 0.02 0.00 0.00 0.00 0.00 0.00 0.00 0.00 0.00 0.00 0.00 0.00 0.00 0.00 0.00 0.00 0.00 0.00 0.00 0.00 0.00 0.00
0.14 0.12 0.09 0.08 0.09 0.09 0.09 0.08 0.06 0.05 0.05 0.05 0.04 0.04 0.03 0.02 0.00 0.01 0.01 0.00 0.00 0.00 0.00 0.00 0.01 0.00 0.00 0.00 0.00 0.00 0.00 0.01 0.02 0.00 0.00 0.00 0.00 0.00 0.00 0.00 0.00 0.00 0.00 0.00 0.00 0.00 0.00
0.14 0.11 0.09 0.09 0.09 0.09 0.09 0.10 0.12 0.10 0.06 0.05 0.04 0.04 0.04 0.03 0.01 0.03 0.01 0.00 0.00 0.01 0.01 0.00 0.00 0.00 0.00 0.00 0.00 0.00 0.00 0.00 0.01 0.00 0.01 0.03 0.00 0.00 0.01 0.00 0.00 0.00 0.00 0.00 0.00 0.00 0.00
0.14 0.14 0.13 0.13 0.14 0.15 0.15 0.16 0.14 0.10 0.08 0.06 0.06 0.06 0.05 0.03 0.04 0.06 0.01 0.00 0.00 0.06 0.08 0.00 0.00 0.00 0.00 0.00 0.00 0.00 0.00 0.00 0.00 0.01 0.04 0.03 0.02 0.00 0.00 0.00 0.00 0.00 0.00 0.00 0.00 0.00 0.00
0.18 0.16 0.15 0.15 0.16 0.14 0.13 0.14 0.14 0.13 0.11 0.10 0.08 0.07 0.07 0.05 0.06 0.02 0.01 0.00 0.00 0.06 0.17 0.01 0.00 0.00 0.00 0.00 0.00 0.00 0.00 0.00 0.00 0.00 0.01 0.05 0.01 0.00 0.00 0.00 0.00 0.00 0.00 0.00 0.00 0.00 0.00
0.23 0.20 0.17 0.15 0.16 0.15 0.14 0.13 0.12 0.12 0.11 0.10 0.11 0.10 0.09 0.12 0.04 0.01 0.01 0.00 0.02 0.19 0.29 0.01 0.00 0.00 0.00 0.00 0.00 0.00 0.00 0.00 0.00 0.00 0.00 0.02 0.00 0.00 0.00 0.00 0.00 0.00 0.00 0.00 0.00 0.00 0.00
0.21 0.20 0.18 0.17 0.16 0.15 0.13 0.11 0.11 0.13 0.14 0.18 0.16 0.11 0.16 0.24 0.15 0.10 0.02 0.00 0.12 0.30 0.15 0.00 0.00 0.00 0.00 0.00 0.00 0.00 0.00 0.00 0.00 0.00 0.00 0.03 0.00 0.00 0.00 0.00 0.00 0.01 0.00 0.00 0.00 0.00 0.02
0.30 0.22 0.20 0.20 0.19 0.17 0.15 0.15 0.16 0.16 0.15 0.17 0.21 0.18 0.27 0.24 0.12 0.02 0.01 0.08 0.25 0.56 0.11 0.01 0.01 0.00 0.00 0.00 0.00 0.00 0.00 0.00 0.00 0.00 0.00 0.00 0.01 0.01 0.00 0.00 0.00 0.00 0.00 0.00 0.00 0.00 0.04
0.45 0.34 0.28 0.24 0.22 0.19 0.17 0.18 0.16 0.15 0.15 0.17 0.22 0.23 0.30 0.14 0.08 0.08 0.17 0.45 0.68 0.27 0.01 0.02 0.03 0.06 0.01 0.00 0.00 0.00 0.00 0.00 0.00 0.00 0.00 0.00 0.00 0.01 0.01 0.00 0.00 0.00 0.00 0.02 0.17 0.09 0.03
0.61 0.46 0.37 0.27 0.23 0.20 0.18 0.17 0.18 0.18 0.16 0.23 0.24 0.25 0.24 0.14 0.07 0.10 0.35 0.88 0.51 0.15 0.00 0.00 0.06 0.14 0.03 0.01 0.00 0.00 0.00 0.00 0.00 0.00 0.00 0.00 0.00 0.00 0.01 0.00 0.01 0.00 0.00 0.03 0.15 0.12 0.11
0.70 0.61 0.47 0.38 0.30 0.26 0.23 0.19 0.21 0.22 0.26 0.28 0.45 0.36 0.32 0.11 0.08 0.30 0.79 0.65 0.20 0.14 0.00 0.00 0.01 0.07 0.05 0.02 0.01 0.02 0.01 0.00 0.00 0.00 0.01 0.01 0.02 0.02 0.01 0.00 0.00 0.01 0.00 0.01 0.03 0.05 0.10
0.80 0.75 0.62 0.47 0.36 0.28 0.28 0.30 0.27 0.30 0.35 0.47 0.57 0.58 0.26 0.10 0.36 0.82 1.16 0.46 0.03 0.02 0.00 0.00 0.00 0.01 0.02 0.01 0.01 0.02 0.03 0.03 0.01 0.00 0.00 0.02 0.06 0.01 0.00 0.00 0.00 0.00 0.00 0.01 0.01 0.06 0.05
0.92 0.80 0.70 0.60 0.53 0.42 0.43 0.43 0.46 0.41 0.43 0.72 1.26 1.19 0.28 0.16 1.09 1.74 1.10 0.25 0.02 0.00 0.01 0.02 0.01 0.04 0.05 0.06 0.03 0.02 0.07 0.12 0.05 0.03 0.03 0.03 0.08 0.07 0.02 0.00 0.00 0.00 0.00 0.00 0.01 0.00 0.02
1.09 1.03 0.79 0.72 0.63 0.52 0.55 0.58 0.61 0.62 0.71 1.42 1.99 1.45 0.40 0.45 1.44 1.19 0.38 0.10 0.05 0.01 0.01 0.05 0.02 0.03 0.16 0.20 0.10 0.06 0.14 0.17 0.11 0.08 0.04 0.05 0.06 0.04 0.02 0.02 0.00 0.00 0.00 0.01 0.01 0.01 0.01
1.05 1.10 0.90 0.78 0.78 0.67 0.69 0.78 0.77 0.79 1.11 1.79 2.35 1.37 1.17 0.86 0.87 0.28 0.16 0.15 0.09 0.06 0.03 0.04 0.06 0.05 0.09 0.14 0.10 0.15 0.14 0.12 0.16 0.10 0.09 0.07 0.08 0.04 0.02 0.04 0.04 0.03 0.00 0.00 0.00 0.00 0.00
1.02 1.07 0.92 0.89 0.90 0.88 0.78 0.92 1.17 1.15 1.28 2.01 2.85 1.94 2.09 1.56 0.56 0.21 0.20 0.24 0.18 0.07 0.06 0.04 0.02 0.02 0.04 0.04 0.04 0.09 0.18 0.16 0.05 0.08 0.12 0.09 0.06 0.06 0.06 0.08 0.03 0.04 0.02 0.00 0.01 0.01 0.00
1.06 0.96 0.92 0.90 0.95 1.06 1.07 1.03 1.28 1.55 1.70 3.45 3.94 1.37 0.64 0.99 0.47 0.14 0.19 0.23 0.21 0.19 0.08 0.07 0.09 0.06 0.04 0.06 0.04 0.04 0.14 0.17 0.13 0.11 0.18 0.22 0.13 0.04 0.02 0.01 0.00 0.01 0.04 0.01 0.02 0.02 0.02
1.04 0.94 0.87 0.92 1.00 1.18 1.32 1.31 1.37 1.85 2.47 4.83 4.08 0.79 0.21 0.10 0.13 0.32 0.22 0.12 0.14 0.12 0.18 0.13 0.12 0.10 0.08 0.09 0.08 0.10 0.10 0.21 0.16 0.14 0.22 0.35 0.32 0.12 0.04 0.01 0.00 0.01 0.00 0.01 0.00 0.00 0.00
0.85 0.87 0.76 0.82 0.87 0.96 1.10 1.35 1.54 2.23 4.07 6.19 3.16 0.44 0.34 0.26 0.19 0.33 0.28 0.12 0.10 0.07 0.06 0.08 0.08 0.10 0.14 0.09 0.12 0.10 0.09 0.09 0.11 0.11 0.17 0.27 0.41 0.35 0.16 0.07 0.05 0.07 0.00 0.00 0.00 0.00 0.01
0.61 0.68 0.70 0.62 0.74 0.70 0.77 0.88 1.22 2.06 4.36 4.53 2.18 0.40 0.78 0.61 0.23 0.15 0.05 0.06 0.06 0.05 0.07 0.04 0.09 0.12 0.07 0.11 0.10 0.10 0.08 0.06 0.05 0.05 0.07 0.20 0.31 0.35 0.21 0.21 0.32 0.11 0.05 0.03 0.02 0.02 0.01
0.57 0.62 0.70 0.62 0.67 0.72 0.70 0.68 0.92 1.24 2.96 4.06 2.43 0.72 0.68 0.57 0.16 0.11 0.10 0.12 0.11 0.09 0.09 0.08 0.08 0.17 0.19 0.27 0.28 0.22 0.14 0.11 0.04 0.04 0.06 0.06 0.17 0.45 0.40 0.37 0.21 0.18 0.19 0.13 0.12 0.12 0.06
0.57 0.65 0.76 0.71 0.64 0.69 0.67 0.65 0.70 0.77 1.54 3.39 3.53 1.67 1.38 0.79 0.26 0.08 0.09 0.09 0.15 0.27 0.24 0.13 0.23 0.21 0.32 0.45 0.57 0.32 0.16 0.14 0.12 0.12 0.05 0.06 0.10 0.32 0.29 0.26 0.11 0.19 0.13 0.06 0.06 0.19 0.08
0.54 0.66 0.75 0.77 0.68 0.65 0.70 0.62 0.50 0.62 1.07 2.01 2.68 2.02 2.97 1.84 0.28 0.16 0.16 0.10 0.10 0.38 0.51 0.33 0.42 0.47 0.47 0.48 0.43 0.21 0.11 0.08 0.11 0.31 0.25 0.09 0.17 0.28 0.17 0.25 0.06 0.07 0.12 0.14 0.54 0.49 0.23
0.54 0.69 0.68 0.69 0.62 0.65 0.75 0.62 0.49 0.61 1.13 1.72 1.66 1.20 3.12 1.89 0.43 0.29 0.20 0.09 0.08 0.40 0.67 0.46 0.62 0.60 0.70 0.54 0.30 0.16 0.07 0.06 0.07 0.21 0.50 0.28 0.22 0.18 0.24 0.27 0.10 0.04 0.17 0.48 0.72 0.41 0.52
0.51 0.67 0.66 0.68 0.54 0.52 0.66 0.65 0.63 0.77 1.33 1.56 1.37 1.13 2.03 2.15 0.92 0.43 0.33 0.12 0.08 0.16 0.46 0.60 0.50 0.38 0.29 0.45 0.34 0.23 0.14 0.11 0.10 0.13 0.42 0.46 0.33 0.41 0.20 0.15 0.17 0.16 0.18 0.10 0.07 0.08 0.07

GFSGBSN_prec_precacc_108.txt.gz
Total_Precipitation_Accumulation
0.08 0.06 0.07 0.06 0.06 0.04 0.04 0.04 0.05 0.04 0.02 0.02 0.02 0.01 0.02 0.02 0.02 0.02 0.02 0.01 0.00 0.01 0.01 0.00 0.01 0.02 0.01 0.00 0.00 0.00 0.00 0.00 0.00 0.00 0.00 0.00 0.00 0.00 0.00 0.00 0.00 0.00 0.00 0.00 0.00 0.00 0.00
0.09 0.08 0.07 0.07 0.06 0.04 0.05 0.04 0.04 0.03 0.02 0.02 0.01 0.01 0.00 0.01 0.02 0.02 0.01 0.00 0.01 0.01 0.01 0.01 0.01 0.03 0.01 0.00 0.00 0.00 0.00 0.00 0.00 0.00 0.00 0.00 0.00 0.00 0.00 0.00 0.00 0.00 0.00 0.00 0.00 0.00 0.00
0.10 0.09 0.08 0.08 0.06 0.06 0.05 0.04 0.03 0.03 0.04 0.04 0.02 0.02 0.01 0.00 0.01 0.01 0.01 0.01 0.00 0.01 0.01 0.01 0.02 0.04 0.01 0.00 0.00 0.00 0.00 0.00 0.00 0.00 0.00 0.00 0.00 0.00 0.00 0.00 0.00 0.00 0.00 0.00 0.00 0.00 0.00
0.11 0.10 0.10 0.11 0.09 0.07 0.06 0.04 0.04 0.03 0.04 0.04 0.03 0.02 0.01 0.00 0.00 0.00 0.01 0.00 0.00 0.01 0.01 0.01 0.02 0.03 0.00 0.00 0.00 0.00 0.00 0.00 0.00 0.00 0.00 0.00 0.00 0.00 0.00 0.00 0.00 0.00 0.00 0.00 0.00 0.00 0.00
0.13 0.12 0.10 0.10 0.10 0.09 0.07 0.06 0.04 0.02 0.03 0.03 0.03 0.02 0.02 0.01 0.01 0.01 0.02 0.00 0.00 0.01 0.01 0.01 0.01 0.02 0.00 0.00 0.00 0.00 0.00 0.00 0.00 0.00 0.00 0.00 0.00 0.00 0.00 0.00 0.00 0.00 0.00 0.00 0.00 0.00 0.00
0.14 0.12 0.09 0.08 0.09 0.09 0.09 0.08 0.06 0.05 0.05 0.05 0.04 0.04 0.03 0.02 0.00 0.01 0.01 0.00 0.00 0.00 0.00 0.00 0.02 0.01 0.00 0.00 0.00 0.00 0.00 0.01 0.02 0.00 0.00 0.00 0.00 0.00 0.00 0.00 0.00 0.00 0.00 0.00 0.00 0.00 0.00
0.14 0.11 0.09 0.09 0.09 0.09 0.09 0.10 0.12 0.10 0.06 0.05 0.04 0.04 0.04 0.03 0.01 0.03 0.01 0.00 0.00 0.01 0.01 0.01 0.01 0.01 0.00 0.00 0.00 0.00 0.00 0.00 0.01 0.00 0.01 0.03 0.00 0.00 0.01 0.00 0.00 0.00 0.00 0.00 0.00 0.00 0.00
0.14 0.14 0.13 0.13 0.14 0.15 0.15 0.16 0.14 0.10 0.08 0.06 0.06 0.06 0.05 0.03 0.04 0.06 0.01 0.00 0.01 0.08 0.11 0.00 0.00 0.00 0.00 0.00 0.00 0.00 0.00 0.00 0.00 0.01 0.04 0.03 0.02 0.00 0.00 0.00 0.00 0.02 0.02 0.00 0.00 0.00 0.00
0.18 0.16 0.15 0.15 0.16 0.14 0.13 0.14 0.14 0.13 0.12 0.10 0.08 0.07 0.07 0.05 0.06 0.02 0.01 0.00 0.00 0.06 0.17 0.01 0.00 0.00 0.00 0.00 0.00 0.00 0.00 0.00 0.00 0.00 0.01 0.05 0.01 0.00 0.00 0.00 0.00 0.01 0.01 0.00 0.00 0.00 0.00
0.23 0.20 0.17 0.15 0.16 0.15 0.14 0.13 0.12 0.12 0.11 0.10 0.11 0.10 0.09 0.12 0.04 0.01 0.01 0.00 0.02 0.19 0.29 0.01 0.01 0.01 0.00 0.00 0.00 0.00 0.00 0.00 0.00 0.00 0.00 0.02 0.00 0.00 0.00 0.00 0.00 0.00 0.00 0.00 0.00 0.01 0.00
0.21 0.20 0.18 0.17 0.16 0.15 0.13 0.11 0.11 0.13 0.14 0.18 0.16 0.11 0.16 0.24 0.15 0.10 0.02 0.00 0.12 0.31 0.15 0.01 0.10 0.02 0.02 0.00 0.00 0.00 0.00 0.00 0.00 0.00 0.00 0.03 0.00 0.00 0.00 0.00 0.00 0.02 0.00 0.00 0.00 0.00 0.02
0.30 0.22 0.20 0.20 0.19 0.17 0.15 0.15 0.16 0.16 0.16 0.17 0.21 0.18 0.27 0.24 0.12 0.02 0.01 0.08 0.26 0.57 0.13 0.03 0.13 0.10 0.07 0.01 0.00 0.00 0.00 0.00 0.00 0.00 0.00 0.00 0.01 0.01 0.00 0.00 0.00 0.00 0.00 0.00 0.00 0.00 0.04
0.45 0.34 0.28 0.24 0.22 0.19 0.17 0.18 0.16 0.15 0.15 0.17 0.22 0.23 0.30 0.14 0.08 0.08 0.17 0.45 0.68 0.31 0.02 0.02 0.08 0.24 0.12 0.07 0.02 0.00 0.00 0.00 0.00 0.00 0.00 0.00 0.00 0.01 0.01 0.00 0.00 0.00 0.00 0.02 0.17 0.09 0.03
0.61 0.46 0.37 0.27 0.23 0.20 0.18 0.17 0.18 0.18 0.16 0.23 0.24 0.25 0.24 0.14 0.07 0.10 0.35 0.88 0.51 0.20 0.01 0.00 0.11 0.22 0.16 0.07 0.07 0.00 0.00 0.00 0.00 0.00 0.00 0.00 0.00 0.00 0.01 0.00 0.01 0.00 0.00 0.03 0.15 0.12 0.11
0.70 0.61 0.47 0.39 0.30 0.26 0.23 0.19 0.21 0.22 0.26 0.28 0.45 0.36 0.32 0.11 0.08 0.30 0.79 0.65 0.20 0.16 0.00 0.00 0.01 0.10 0.10 0.08 0.12 0.11 0.03 0.01 0.00 0.00 0.01 0.01 0.02 0.02 0.01 0.00 0.00 0.01 0.00 0.01 0.03 0.05 0.10
0.80 0.76 0.62 0.47 0.36 0.28 0.28 0.30 0.27 0.30 0.35 0.47 0.57 0.58 0.26 0.10 0.36 0.82 1.16 0.46 0.03 0.02 0.00 0.00 0.00 0.01 0.11 0.06 0.12 0.22 0.08 0.06 0.01 0.00 0.00 0.02 0.06 0.01 0.00 0.00 0.00 0.00 0.00 0.01 0.01 0.06 0.05
0.92 0.80 0.70 0.60 0.53 0.42 0.43 0.43 0.46 0.41 0.43 0.72 1.26 1.19 0.28 0.16 1.09 1.74 1.10 0.25 0.02 0.00 0.01 0.02 0.01 0.04 0.05 0.07 0.07 0.17 0.19 0.24 0.08 0.04 0.03 0.03 0.08 0.07 0.02 0.00 0.00 0.00 0.00 0.00 0.01 0.00 0.02
1.09 1.03 0.79 0.72 0.63 0.52 0.55 0.58 0.61 0.62 0.71 1.42 1.99 1.45 0.40 0.45 1.44 1.19 0.38 0.10 0.05 0.01 0.01 0.05 0.02 0.03 0.16 0.20 0.10 0.07 0.15 0.22 0.14 0.16 0.08 0.05 0.06 0.05 0.02 0.02 0.00 0.00 0.00 0.01 0.01 0.01 0.01
1.05 1.11 0.90 0.78 0.78 0.67 0.69 0.79 0.77 0.79 1.11 1.79 2.35 1.37 1.17 0.86 0.87 0.28 0.16 0.15 0.09 0.06 0.03 0.04 0.06 0.05 0.09 0.14 0.10 0.15 0.14 0.13 0.16 0.11 0.12 0.09 0.11 0.08 0.05 0.08 0.05 0.04 0.00 0.00 0.00 0.00 0.00
1.02 1.08 0.92 0.89 0.90 0.88 0.78 0.93 1.17 1.16 1.28 2.01 2.85 1.94 2.09 1.57 0.56 0.21 0.20 0.24 0.18 0.07 0.06 0.04 0.03 0.03 0.04 0.04 0.04 0.09 0.18 0.16 0.05 0.09 0.13 0.10 0.07 0.08 0.07 0.09 0.04 0.05 0.02 0.00 0.01 0.01 0.00
1.06 0.96 0.92 0.90 0.95 1.06 1.07 1.03 1.29 1.56 1.70 3.45 3.94 1.37 0.64 0.99 0.47 0.14 0.19 0.23 0.21 0.19 0.08 0.07 0.09 0.06 0.04 0.07 0.04 0.05 0.14 0.17 0.13 0.11 0.20 0.23 0.15 0.04 0.02 0.01 0.00 0.02 0.04 0.01 0.02 0.02 0.02
1.04 0.94 0.88 0.92 1.00 1.18 1.32 1.31 1.39 1.86 2.47 4.83 4.08 0.79 0.21 0.10 0.13 0.32 0.22 0.12 0.15 0.12 0.18 0.13 0.12 0.10 0.08 0.09 0.09 0.10 0.11 0.21 0.16 0.14 0.23 0.37 0.34 0.12 0.04 0.01 0.00 0.01 0.00 0.01 0.00 0.00 0.00
0.85 0.88 0.76 0.82 0.87 0.96 1.10 1.35 1.56 2.25 4.07 6.19 3.16 0.44 0.34 0.26 0.19 0.33 0.28 0.12 0.10 0.07 0.06 0.08 0.08 0.10 0.14 0.09 0.12 0.10 0.09 0.10 0.11 0.11 0.18 0.28 0.43 0.36 0.17 0.07 0.05 0.07 0.00 0.00 0.00 0.00 0.01
0.61 0.69 0.70 0.63 0.74 0.70 0.77 0.89 1.24 2.09 4.36 4.53 2.18 0.40 0.78 0.61 0.23 0.15 0.05 0.06 0.06 0.05 0.07 0.04 0.09 0.12 0.07 0.11 0.10 0.10 0.08 0.06 0.05 0.05 0.07 0.22 0.31 0.36 0.22 0.21 0.32 0.12 0.06 0.03 0.02 0.02 0.01
0.57 0.62 0.70 0.62 0.68 0.72 0.70 0.68 0.93 1.26 3.00 4.06 2.43 0.72 0.69 0.58 0.16 0.11 0.10 0.12 0.11 0.09 0.09 0.08 0.08 0.17 0.19 0.27 0.28 0.23 0.18 0.15 0.09 0.06 0.06 0.06 0.18 0.47 0.41 0.37 0.21 0.19 0.22 0.14 0.14 0.13 0.07
0.57 0.65 0.77 0.71 0.64 0.69 0.67 0.65 0.71 0.78 1.59 3.41 3.54 1.68 1.39 0.80 0.26 0.08 0.09 0.09 0.15 0.27 0.24 0.13 0.23 0.21 0.32 0.47 0.58 0.35 0.20 0.18 0.16 0.18 0.07 0.06 0.10 0.34 0.30 0.27 0.11 0.22 0.23 0.07 0.10 0.21 0.08
0.54 0.66 0.75 0.78 0.69 0.66 0.70 0.62 0.50 0.63 1.11 2.05 2.69 2.02 3.00 1.86 0.28 0.16 0.16 0.10 0.10 0.38 0.51 0.33 0.42 0.47 0.47 0.49 0.44 0.25 0.14 0.10 0.13 0.35 0.30 0.11 0.21 0.32 0.19 0.26 0.06 0.07 0.17 0.16 0.59 0.50 0.23
0.55 0.69 0.68 0.70 0.63 0.65 0.75 0.63 0.50 0.62 1.16 1.82 1.74 1.21 3.14 1.92 0.43 0.29 0.20 0.09 0.08 0.40 0.67 0.46 0.62 0.61 0.71 0.55 0.33 0.21 0.13 0.09 0.10 0.26 0.54 0.31 0.25 0.21 0.27 0.28 0.10 0.04 0.18 0.49 0.73 0.41 0.52
0.51 0.68 0.66 0.69 0.56 0.53 0.66 0.65 0.64 0.77 1.34 1.62 1.45 1.15 2.10 2.26 0.93 0.43 0.33 0.12 0.08 0.16 0.46 0.60 0.50 0.39 0.30 0.46 0.37 0.26 0.17 0.14 0.13 0.17 0.44 0.49 0.36 0.46 0.22 0.16 0.17 0.16 0.18 0.10 0.07 0.08 0.07

GFSGBSN_prec_precacc_111.txt.gz
Total_Precipitation_Accumulation
0.08 0.06 0.07 0.06 0.06 0.04 0.04 0.04 0.05 0.04 0.02 0.02 0.02 0.01 0.02 0.02 0.02 0.02 0.02 0.01 0.00 0.01 0.01 0.00 0.01 0.02 0.01 0.00 0.00 0.00 0.00 0.00 0.00 0.00 0.00 0.00 0.00 0.00 0.00 0.00 0.00 0.00 0.00 0.00 0.00 0.00 0.00
0.09 0.08 0.07 0.07 0.06 0.04 0.05 0.04 0.04 0.03 0.02 0.02 0.01 0.01 0.00 0.01 0.02 0.02 0.01 0.00 0.01 0.01 0.01 0.01 0.01 0.03 0.01 0.00 0.00 0.00 0.00 0.00 0.00 0.00 0.00 0.00 0.00 0.00 0.00 0.00 0.00 0.00 0.00 0.00 0.00 0.00 0.00
0.10 0.09 0.08 0.08 0.06 0.06 0.05 0.04 0.03 0.03 0.04 0.04 0.02 0.02 0.01 0.00 0.01 0.01 0.01 0.01 0.00 0.01 0.01 0.01 0.02 0.04 0.01 0.00 0.00 0.00 0.00 0.00 0.00 0.00 0.00 0.00 0.00 0.00 0.00 0.00 0.00 0.00 0.00 0.00 0.00 0.00 0.00
0.11 0.10 0.10 0.11 0.09 0.07 0.06 0.04 0.04 0.03 0.04 0.04 0.03 0.02 0.01 0.00 0.00 0.00 0.01 0.00 0.00 0.01 0.01 0.01 0.02 0.03 0.00 0.00 0.00 0.00 0.00 0.00 0.00 0.00 0.00 0.00 0.00 0.00 0.00 0.00 0.00 0.00 0.00 0.00 0.00 0.00 0.00
0.13 0.12 0.10 0.10 0.10 0.09 0.07 0.06 0.04 0.02 0.03 0.03 0.03 0.02 0.02 0.01 0.01 0.01 0.02 0.00 0.00 0.01 0.01 0.01 0.01 0.02 0.00 0.00 0.00 0.00 0.00 0.00 0.00 0.00 0.00 0.00 0.00 0.00 0.00 0.00 0.00 0.00 0.00 0.00 0.00 0.00 0.00
0.14 0.12 0.09 0.08 0.09 0.09 0.09 0.08 0.06 0.05 0.05 0.05 0.04 0.04 0.03 0.02 0.00 0.01 0.01 0.00 0.00 0.00 0.00 0.00 0.02 0.01 0.00 0.00 0.00 0.00 0.00 0.01 0.02 0.00 0.00 0.00 0.00 0.00 0.00 0.00 0.00 0.00 0.00 0.00 0.00 0.00 0.00
0.14 0.11 0.09 0.09 0.09 0.09 0.09 0.10 0.12 0.10 0.06 0.05 0.04 0.04 0.04 0.03 0.01 0.03 0.01 0.00 0.00 0.01 0.01 0.01 0.01 0.01 0.00 0.00 0.00 0.00 0.00 0.00 0.01 0.00 0.01 0.03 0.00 0.00 0.01 0.00 0.00 0.00 0.00 0.00 0.00 0.00 0.00
0.14 0.14 0.13 0.13 0.14 0.15 0.15 0.16 0.14 0.10 0.08 0.06 0.06 0.06 0.05 0.03 0.04 0.06 0.01 0.00 0.01 0.08 0.11 0.00 0.00 0.00 0.00 0.00 0.00 0.00 0.00 0.01 0.01 0.01 0.04 0.03 0.02 0.00 0.00 0.00 0.00 0.02 0.02 0.00 0.00 0.00 0.00
0.18 0.16 0.15 0.15 0.16 0.14 0.13 0.14 0.14 0.13 0.12 0.10 0.08 0.07 0.07 0.05 0.06 0.02 0.01 0.00 0.00 0.06 0.17 0.01 0.00 0.00 0.00 0.01 0.00 0.00 0.00 0.00 0.04 0.02 0.01 0.05 0.01 0.00 0.00 0.00 0.00 0.01 0.01 0.00 0.00 0.00 0.00
0.23 0.20 0.17 0.15 0.16 0.15 0.14 0.13 0.12 0.12 0.11 0.10 0.11 0.10 0.09 0.12 0.04 0.01 0.01 0.00 0.02 0.20 0.30 0.01 0.02 0.03 0.04 0.07 0.01 0.00 0.00 0.00 0.04 0.03 0.00 0.02 0.00 0.00 0.00 0.00 0.00 0.00 0.00 0.00 0.01 0.02 0.01
0.21 0.20 0.18 0.17 0.16 0.15 0.13 0.11 0.11 0.13 0.14 0.18 0.16 0.11 0.16 0.24 0.15 0.10 0.02 0.00 0.12 0.31 0.16 0.01 0.11 0.05 0.07 0.04 0.00 0.01 0.00 0.00 0.01 0.02 0.00 0.03 0.00 0.00 0.00 0.00 0.00 0.02 0.00 0.01 0.00 0.00 0.02
0.30 0.22 0.20 0.20 0.19 0.17 0.15 0.15 0.16 0.16 0.16 0.17 0.21 0.18 0.27 0.24 0.12 0.02 0.01 0.08 0.26 0.58 0.13 0.03 0.14 0.10 0.14 0.09 0.01 0.01 0.00 0.00 0.00 0.02 0.02 0.01 0.01 0.01 0.00 0.00 0.00 0.00 0.00 0.00 0.00 0.00 0.04
0.45 0.34 0.28 0.24 0.22 0.19 0.17 0.18 0.16 0.15 0.15 0.17 0.22 0.23 0.30 0.14 0.08 0.08 0.17 0.45 0.69 0.31 0.02 0.02 0.08 0.25 0.16 0.18 0.16 0.01 0.00 0.00 0.00 0.00 0.02 0.01 0.01 0.01 0.01 0.00 0.00 0.00 0.00 0.02 0.17 0.10 0.03
0.61 0.46 0.37 0.27 0.23 0.20 0.18 0.17 0.18 0.18 0.16 0.23 0.24 0.25 0.24 0.14 0.07 0.10 0.35 0.88 0.51 0.20 0.01 0.00 0.11 0.23 0.24 0.16 0.22 0.03 0.00 0.00 0.00 0.00 0.00 0.00 0.01 0.00 0.01 0.00 0.01 0.00 0.00 0.04 0.16 0.12 0.11
0.70 0.61 0.47 0.39 0.30 0.26 0.23 0.19 0.21 0.22 0.26 0.28 0.45 0.36 0.32 0.11 0.08 0.30 0.79 0.65 0.20 0.16 0.00 0.00 0.01 0.10 0.11 0.11 0.40 0.36 0.09 0.07 0.04 0.01 0.03 0.01 0.02 0.02 0.01 0.00 0.00 0.01 0.00 0.01 0.03 0.06 0.10
0.80 0.76 0.62 0.47 0.36 0.28 0.28 0.30 0.27 0.30 0.35 0.47 0.57 0.58 0.26 0.10 0.36 0.82 1.16 0.46 0.03 0.02 0.00 0.00 0.00 0.02 0.12 0.08 0.21 0.69 0.22 0.10 0.03 0.01 0.03 0.05 0.06 0.01 0.00 0.00 0.00 0.00 0.00 0.01 0.01 0.06 0.05
0.92 0.80 0.70 0.60 0.53 0.42 0.43 0.43 0.46 0.41 0.43 0.72 1.26 1.19 0.28 0.16 1.09 1.74 1.10 0.25 0.02 0.00 0.01 0.02 0.02 0.05 0.06 0.07 0.14 0.35 0.36 0.32 0.08 0.04 0.04 0.07 0.09 0.07 0.02 0.00 0.00 0.00 0.00 0.00 0.01 0.00 0.02
1.09 1.03 0.79 0.72 0.63 0.52 0.55 0.58 0.61 0.62 0.71 1.42 1.99 1.45 0.40 0.45 1.44 1.19 0.38 0.10 0.05 0.01 0.01 0.05 0.03 0.04 0.17 0.21 0.10 0.10 0.20 0.32 0.21 0.23 0.09 0.07 0.12 0.08 0.02 0.02 0.00 0.00 0.00 0.01 0.01 0.01 0.01
1.05 1.11 0.90 0.78 0.78 0.67 0.69 0.79 0.77 0.79 1.11 1.79 2.35 1.37 1.17 0.86 0.88 0.28 0.16 0.15 0.09 0.06 0.03 0.04 0.07 0.06 0.10 0.14 0.10 0.15 0.14 0.13 0.17 0.18 0.23 0.13 0.18 0.15 0.10 0.10 0.07 0.04 0.00 0.00 0.00 0.00 0.00
1.02 1.08 0.92 0.89 0.90 0.88 0.78 0.93 1.17 1.16 1.28 2.01 2.85 1.94 2.09 1.57 0.56 0.21 0.20 0.24 0.19 0.07 0.06 0.04 0.03 0.03 0.04 0.04 0.04 0.10 0.18 0.16 0.06 0.10 0.13 0.13 0.12 0.13 0.15 0.14 0.06 0.08 0.03 0.00 0.01 0.01 0.00
1.06 0.96 0.93 0.90 0.95 1.06 1.07 1.03 1.30 1.56 1.70 3.45 3.94 1.37 0.64 0.99 0.47 0.14 0.19 0.23 0.21 0.19 0.08 0.07 0.09 0.06 0.04 0.07 0.05 0.05 0.14 0.17 0.13 0.12 0.21 0.24 0.17 0.06 0.03 0.02 0.03 0.03 0.05 0.01 0.02 0.02 0.02
1.04 0.94 0.88 0.92 1.00 1.18 1.32 1.31 1.39 1.86 2.47 4.83 4.09 0.79 0.21 0.10 0.13 0.32 0.22 0.12 0.15 0.12 0.18 0.13 0.12 0.10 0.08 0.09 0.11 0.11 0.11 0.22 0.17 0.14 0.23 0.38 0.35 0.12 0.04 0.01 0.00 0.01 0.00 0.01 0.00 0.00 0.00
0.85 0.88 0.76 0.82 0.87 0.96 1.10 1.35 1.56 2.25 4.07 6.19 3.16 0.44 0.35 0.26 0.19 0.33 0.28 0.12 0.10 0.07 0.06 0.08 0.08 0.10 0.14 0.09 0.12 0.10 0.09 0.10 0.11 0.11 0.20 0.30 0.45 0.37 0.18 0.07 0.05 0.07 0.00 0.00 0.00 0.00 0.01
0.61 0.69 0.71 0.63 0.74 0.70 0.77 0.89 1.24 2.10 4.36 4.54 2.18 0.41 0.79 0.61 0.24 0.15 0.05 0.06 0.06 0.05 0.07 0.04 0.09 0.12 0.07 0.11 0.10 0.10 0.10 0.07 0.05 0.05 0.08 0.25 0.33 0.37 0.24 0.21 0.33 0.13 0.06 0.03 0.02 0.05 0.02
0.57 0.62 0.70 0.62 0.68 0.73 0.70 0.68 0.94 1.28 3.01 4.07 2.44 0.72 0.70 0.59 0.16 0.12 0.10 0.12 0.11 0.09 0.09 0.08 0.08 0.17 0.19 0.28 0.29 0.25 0.22 0.20 0.13 0.07 0.07 0.07 0.20 0.51 0.42 0.39 0.22 0.20 0.23 0.18 0.20 0.16 0.07
0.57 0.65 0.77 0.71 0.64 0.69 0.67 0.65 0.71 0.78 1.62 3.43 3.55 1.68 1.39 0.81 0.27 0.08 0.09 0.09 0.15 0.28 0.24 0.14 0.23 0.21 0.32 0.48 0.59 0.39 0.25 0.22 0.21 0.27 0.09 0.08 0.11 0.37 0.32 0.30 0.16 0.31 0.28 0.08 0.16 0.27 0.09
0.54 0.66 0.75 0.78 0.70 0.66 0.70 0.62 0.50 0.63 1.13 2.08 2.70 2.02 3.01 1.87 0.29 0.16 0.16 0.11 0.10 0.38 0.51 0.34 0.42 0.47 0.48 0.49 0.45 0.30 0.20 0.12 0.16 0.47 0.41 0.16 0.25 0.35 0.24 0.28 0.09 0.08 0.17 0.19 0.67 0.62 0.24
0.55 0.69 0.68 0.70 0.63 0.66 0.75 0.63 0.50 0.62 1.17 1.86 1.76 1.23 3.17 1.93 0.43 0.29 0.20 0.09 0.09 0.40 0.69 0.47 0.63 0.63 0.72 0.57 0.36 0.26 0.20 0.14 0.15 0.31 0.57 0.37 0.32 0.31 0.34 0.33 0.13 0.04 0.18 0.55 0.88 0.44 0.52
0.53 0.69 0.66 0.69 0.56 0.54 0.67 0.65 0.64 0.77 1.34 1.65 1.50 1.18 2.19 2.33 0.94 0.43 0.33 0.12 0.08 0.16 0.47 0.60 0.51 0.40 0.31 0.48 0.39 0.27 0.20 0.18 0.17 0.25 0.48 0.54 0.38 0.51 0.28 0.25 0.18 0.16 0.19 0.10 0.07 0.08 0.07

GFSGBSN_prec_precacc_114.txt.gz
Total_Precipitation_Accumulation
0.08 0.06 0.07 0.06 0.06 0.04 0.04 0.04 0.05 0.04 0.02 0.02 0.02 0.01 0.02 0.02 0.02 0.02 0.02 0.01 0.00 0.01 0.01 0.00 0.01 0.02 0.01 0.00 0.00 0.00 0.00 0.00 0.00 0.00 0.00 0.00 0.00 0.00 0.00 0.00 0.00 0.00 0.00 0.00 0.00 0.00 0.00
0.09 0.08 0.07 0.07 0.06 0.04 0.05 0.04 0.04 0.03 0.02 0.02 0.01 0.01 0.00 0.01 0.02 0.02 0.01 0.00 0.01 0.01 0.01 0.01 0.01 0.03 0.01 0.00 0.00 0.00 0.00 0.00 0.00 0.00 0.00 0.00 0.00 0.00 0.00 0.00 0.00 0.00 0.00 0.00 0.00 0.00 0.00
0.10 0.09 0.08 0.08 0.06 0.06 0.05 0.04 0.03 0.03 0.04 0.04 0.02 0.02 0.01 0.00 0.01 0.01 0.01 0.01 0.00 0.01 0.01 0.01 0.02 0.04 0.01 0.00 0.00 0.00 0.00 0.00 0.00 0.00 0.00 0.00 0.00 0.00 0.00 0.00 0.00 0.00 0.00 0.00 0.00 0.00 0.00
0.11 0.10 0.10 0.11 0.09 0.07 0.06 0.04 0.04 0.03 0.04 0.04 0.03 0.02 0.01 0.00 0.00 0.00 0.01 0.00 0.00 0.01 0.01 0.01 0.02 0.03 0.00 0.00 0.00 0.00 0.00 0.00 0.00 0.00 0.00 0.00 0.00 0.00 0.00 0.00 0.00 0.00 0.00 0.00 0.00 0.00 0.00
0.14 0.12 0.10 0.10 0.10 0.09 0.07 0.06 0.04 0.02 0.03 0.03 0.03 0.02 0.02 0.01 0.01 0.01 0.02 0.00 0.00 0.01 0.01 0.01 0.01 0.02 0.00 0.00 0.00 0.00 0.00 0.00 0.00 0.00 0.00 0.00 0.00 0.00 0.00 0.00 0.00 0.00 0.00 0.00 0.00 0.00 0.00
0.15 0.13 0.09 0.08 0.09 0.09 0.09 0.08 0.06 0.05 0.05 0.05 0.04 0.04 0.03 0.02 0.00 0.01 0.01 0.00 0.00 0.00 0.00 0.00 0.02 0.01 0.00 0.00 0.00 0.00 0.00 0.01 0.02 0.00 0.00 0.00 0.00 0.00 0.00 0.00 0.00 0.00 0.00 0.00 0.00 0.00 0.00
0.15 0.11 0.09 0.09 0.09 0.09 0.09 0.10 0.12 0.10 0.06 0.05 0.04 0.04 0.04 0.03 0.01 0.03 0.01 0.00 0.00 0.01 0.01 0.01 0.01 0.01 0.00 0.00 0.00 0.00 0.00 0.00 0.01 0.01 0.01 0.03 0.00 0.00 0.01 0.00 0.00 0.00 0.00 0.00 0.00 0.00 0.00
0.15 0.14 0.13 0.13 0.14 0.15 0.15 0.16 0.14 0.10 0.08 0.06 0.06 0.06 0.05 0.03 0.04 0.06 0.01 0.00 0.01 0.08 0.11 0.00 0.00 0.00 0.00 0.00 0.00 0.00 0.00 0.01 0.02 0.04 0.05 0.04 0.03 0.00 0.00 0.00 0.00 0.02 0.02 0.00 0.00 0.00 0.00
0.19 0.16 0.15 0.15 0.16 0.14 0.13 0.14 0.14 0.13 0.12 0.10 0.08 0.07 0.07 0.05 0.06 0.02 0.01 0.00 0.00 0.06 0.17 0.01 0.00 0.00 0.00 0.01 0.00 0.00 0.00 0.00 0.05 0.11 0.05 0.08 0.01 0.00 0.00 0.00 0.00 0.01 0.01 0.00 0.00 0.00 0.01
0.24 0.20 0.17 0.15 0.16 0.15 0.14 0.13 0.12 0.12 0.11 0.10 0.11 0.10 0.09 0.12 0.04 0.01 0.01 0.00 0.02 0.20 0.30 0.01 0.02 0.03 0.04 0.07 0.01 0.00 0.00 0.00 0.07 0.09 0.06 0.09 0.01 0.00 0.00 0.00 0.00 0.00 0.00 0.00 0.01 0.04 0.04
0.22 0.20 0.18 0.17 0.16 0.15 0.13 0.11 0.11 0.13 0.14 0.18 0.16 0.11 0.16 0.24 0.15 0.10 0.02 0.00 0.12 0.31 0.16 0.01 0.11 0.05 0.07 0.05 0.01 0.06 0.00 0.00 0.02 0.07 0.14 0.20 0.02 0.00 0.00 0.00 0.00 0.02 0.00 0.01 0.00 0.00 0.02
0.30 0.22 0.20 0.20 0.19 0.17 0.15 0.15 0.16 0.16 0.16 0.17 0.21 0.18 0.27 0.24 0.12 0.02 0.01 0.08 0.26 0.58 0.14 0.03 0.14 0.10 0.14 0.09 0.01 0.02 0.01 0.00 0.00 0.05 0.06 0.04 0.02 0.01 0.00 0.00 0.00 0.00 0.00 0.00 0.00 0.00 0.04
0.45 0.34 0.28 0.24 0.22 0.19 0.17 0.18 0.16 0.15 0.15 0.17 0.22 0.23 0.30 0.14 0.08 0.08 0.17 0.45 0.69 0.32 0.02 0.02 0.08 0.25 0.16 0.20 0.22 0.05 0.02 0.00 0.00 0.03 0.06 0.04 0.03 0.01 0.01 0.00 0.00 0.00 0.00 0.03 0.18 0.10 0.03
0.61 0.46 0.37 0.27 0.23 0.20 0.18 0.17 0.18 0.18 0.16 0.23 0.24 0.25 0.24 0.14 0.07 0.10 0.35 0.89 0.52 0.20 0.01 0.00 0.11 0.23 0.24 0.17 0.24 0.05 0.02 0.00 0.00 0.00 0.03 0.04 0.11 0.03 0.01 0.00 0.01 0.00 0.00 0.04 0.16 0.12 0.11
0.70 0.61 0.48 0.39 0.30 0.26 0.23 0.19 0.21 0.22 0.26 0.28 0.45 0.36 0.32 0.11 0.08 0.30 0.79 0.65 0.21 0.16 0.00 0.00 0.01 0.10 0.11 0.11 0.45 0.53 0.40 0.10 0.09 0.05 0.11 0.05 0.05 0.04 0.01 0.00 0.00 0.01 0.00 0.01 0.03 0.06 0.12
0.80 0.76 0.62 0.47 0.36 0.28 0.28 0.30 0.27 0.30 0.35 0.47 0.57 0.58 0.26 0.10 0.36 0.82 1.16 0.46 0.03 0.02 0.00 0.00 0.00 0.02 0.12 0.08 0.23 0.85 0.40 0.17 0.04 0.02 0.07 0.11 0.14 0.03 0.01 0.00 0.00 0.00 0.00 0.01 0.01 0.07 0.05
0.92 0.81 0.71 0.60 0.53 0.42 0.43 0.43 0.46 0.41 0.43 0.72 1.26 1.19 0.28 0.16 1.09 1.74 1.10 0.25 0.02 0.00 0.01 0.02 0.02 0.05 0.06 0.07 0.14 0.37 0.43 0.40 0.09 0.05 0.05 0.10 0.18 0.11 0.02 0.00 0.00 0.00 0.00 0.00 0.01 0.00 0.02
1.09 1.04 0.79 0.72 0.63 0.52 0.55 0.58 0.61 0.62 0.71 1.42 1.99 1.45 0.40 0.45 1.44 1.19 0.38 0.10 0.05 0.01 0.01 0.05 0.03 0.04 0.17 0.21 0.11 0.10 0.21 0.34 0.23 0.25 0.10 0.09 0.15 0.13 0.02 0.02 0.00 0.00 0.00 0.01 0.01 0.01 0.01
1.05 1.11 0.90 0.78 0.78 0.67 0.69 0.79 0.77 0.79 1.11 1.79 2.35 1.37 1.17 0.86 0.88 0.28 0.16 0.15 0.09 0.06 0.03 0.04 0.07 0.06 0.10 0.15 0.12 0.16 0.14 0.13 0.17 0.19 0.24 0.14 0.27 0.42 0.23 0.14 0.07 0.04 0.00 0.00 0.00 0.00 0.01
1.03 1.08 0.93 0.89 0.90 0.88 0.78 0.93 1.17 1.16 1.28 2.01 2.85 1.94 2.09 1.57 0.56 0.21 0.20 0.24 0.19 0.07 0.06 0.04 0.03 0.03 0.05 0.05 0.05 0.13 0.18 0.16 0.06 0.10 0.14 0.15 0.16 0.30 0.50 0.30 0.08 0.09 0.03 0.00 0.01 0.01 0.00
1.07 0.97 0.93 0.90 0.95 1.06 1.07 1.03 1.30 1.56 1.70 3.46 3.94 1.37 0.64 0.99 0.47 0.14 0.19 0.23 0.21 0.19 0.08 0.07 0.09 0.07 0.05 0.07 0.05 0.06 0.14 0.17 0.13 0.12 0.21 0.25 0.20 0.14 0.11 0.04 0.15 0.09 0.07 0.02 0.02 0.02 0.03
1.05 0.94 0.88 0.92 1.00 1.18 1.32 1.31 1.39 1.86 2.47 4.83 4.09 0.79 0.21 0.10 0.13 0.32 0.22 0.12 0.15 0.12 0.18 0.13 0.12 0.10 0.08 0.10 0.11 0.11 0.11 0.22 0.17 0.15 0.23 0.38 0.36 0.13 0.04 0.01 0.02 0.03 0.02 0.05 0.02 0.01 0.01
0.86 0.88 0.77 0.82 0.87 0.96 1.10 1.35 1.56 2.25 4.07 6.19 3.16 0.44 0.35 0.27 0.19 0.33 0.28 0.12 0.10 0.07 0.06 0.08 0.08 0.10 0.14 0.09 0.12 0.10 0.09 0.10 0.11 0.11 0.21 0.31 0.46 0.38 0.20 0.08 0.05 0.07 0.01 0.00 0.00 0.00 0.01
0.61 0.69 0.71 0.63 0.74 0.70 0.77 0.89 1.24 2.10 4.36 4.55 2.18 0.41 0.79 0.62 0.24 0.15 0.05 0.06 0.06 0.05 0.07 0.04 0.09 0.12 0.07 0.11 0.10 0.10 0.10 0.07 0.05 0.05 0.08 0.25 0.34 0.38 0.25 0.21 0.33 0.16 0.06 0.03 0.03 0.08 0.03
0.57 0.62 0.71 0.62 0.68 0.73 0.70 0.68 0.94 1.28 3.01 4.08 2.46 0.73 0.71 0.59 0.16 0.12 0.11 0.12 0.11 0.09 0.09 0.08 0.08 0.17 0.19 0.28 0.29 0.25 0.24 0.23 0.15 0.08 0.08 0.07 0.22 0.52 0.44 0.40 0.24 0.24 0.24 0.19 0.23 0.20 0.08
0.57 0.65 0.77 0.72 0.65 0.69 0.67 0.65 0.71 0.78 1.62 3.44 3.56 1.69 1.41 0.82 0.27 0.08 0.09 0.09 0.15 0.28 0.24 0.14 0.23 0.21 0.32 0.48 0.60 0.41 0.29 0.26 0.25 0.36 0.12 0.09 0.13 0.38 0.34 0.32 0.21 0.39 0.29 0.08 0.18 0.45 0.21
0.54 0.66 0.75 0.78 0.70 0.66 0.71 0.62 0.50 0.63 1.13 2.10 2.71 2.02 3.02 1.88 0.29 0.16 0.17 0.11 0.11 0.39 0.52 0.35 0.43 0.48 0.48 0.50 0.46 0.32 0.25 0.15 0.22 0.57 0.46 0.20 0.28 0.37 0.25 0.32 0.17 0.09 0.17 0.19 0.72 0.75 0.40
0.56 0.69 0.68 0.70 0.63 0.66 0.75 0.63 0.50 0.62 1.17 1.88 1.80 1.24 3.18 1.94 0.44 0.30 0.21 0.09 0.09 0.41 0.72 0.49 0.64 0.67 0.73 0.58 0.39 0.30 0.23 0.18 0.19 0.36 0.62 0.51 0.42 0.45 0.47 0.45 0.26 0.05 0.18 0.58 1.01 0.54 0.63
0.54 0.69 0.66 0.69 0.56 0.54 0.67 0.65 0.64 0.77 1.35 1.66 1.54 1.19 2.23 2.40 0.95 0.43 0.33 0.12 0.08 0.16 0.47 0.61 0.52 0.40 0.31 0.51 0.43 0.29 0.21 0.21 0.19 0.34 0.56 0.57 0.41 0.53 0.34 0.38 0.23 0.17 0.19 0.10 0.08 0.10 0.08